W4HSV Weather Reports


time (UTC)temp
F
wind
direction
speed
knots
gust
knots
rain 1hr
in
rain 24hr
in
rain mn
in
humidity
%
barometer
mb
20260831182004 90 53 2.6 4.3 0.00 0.00 0.00 62 1019.7
20260831181934 90 36 2.6 4.3 0.00 0.00 0.00 63 1019.7
20260831181646 90 351 1.7 4.3 0.00 0.00 0.00 62 1019.7
20260831181536 90 5 1.7 4.3 0.00 0.00 0.00 61 1019.7
20260831181423 90 62 1.7 4.3 0.00 0.00 0.00 61 1019.7
20260831181331 90 43 2.6 4.3 0.00 0.00 0.00 61 1019.7
20260831181237 90 66 2.6 4.3 0.00 0.00 0.00 61 1019.7
20260831181125 90 49 2.6 4.3 0.00 0.00 0.00 63 1019.6
20260831181032 90 5 2.6 4.3 0.00 0.00 0.00 63 1019.7
20260831180923 90 311 2.6 4.3 0.00 0.00 0.00 63 1019.6
20260831180830 90 327 3.5 4.3 0.00 0.00 0.00 64 1019.7
20260831180737 90 335 3.5 4.3 0.00 0.00 0.00 63 1019.6
20260831180623 90 17 3.5 4.3 0.00 0.00 0.00 64 1019.7
20260831180532 90 360 2.6 4.3 0.00 0.00 0.00 63 1019.7
20260831180423 90 310 2.6 4.3 0.00 0.00 0.00 63 1019.6
20260831180354 90 320 1.7 4.3 0.00 0.00 0.00 62 1019.6
20260831180127 90 322 1.7 4.3 0.00 0.00 0.00 62 1019.8
20260831180054 90 283 1.7 4.3 0.00 0.00 0.00 61 1019.8
20260831175921 90 216 1.7 4.3 0.00 0.00 0.00 61 1019.8
20260831175833 90 216 1.7 4.3 0.00 0.00 0.00 61 1019.9
20260831175739 90 207 2.6 4.3 0.00 0.00 0.00 61 1019.8
20260831175626 90 182 2.6 4.3 0.00 0.00 0.00 61 1019.8
20260831175535 90 167 1.7 3.5 0.00 0.00 0.00 62 1019.9
20260831175442 90 184 0.9 2.6 0.00 0.00 0.00 61 1019.9
20260831175328 90 217 0.9 2.6 0.00 0.00 0.00 61 1020.0
20260831175219 91 208 0.9 2.6 0.00 0.00 0.00 61 1020.0
20260831175147 91 273 0.9 2.6 0.00 0.00 0.00 61 1019.9
20260831175033 91 273 1.7 2.6 0.00 0.00 0.00 61 1019.9
20260831175001 91 273 1.7 2.6 0.00 0.00 0.00 61 1019.9
20260831174931 91 273 1.7 2.6 0.00 0.00 0.00 62 1019.9
20260831174627 91 275 0.9 2.6 0.00 0.00 0.00 61 1020.0
20260831174535 91 263 0.0 2.6 0.00 0.00 0.00 62 1020.0
20260831174442 91 206 0.9 2.6 0.00 0.00 0.00 62 1019.9
20260831174348 91 206 0.9 3.5 0.00 0.00 0.00 61 1020.1
20260831174254 91 206 1.7 3.5 0.00 0.00 0.00 62 1020.1
20260831174121 91 153 0.9 3.5 0.00 0.00 0.00 61 1020.1
20260831174029 91 155 0.9 3.5 0.00 0.00 0.00 62 1020.1
20260831173921 91 271 0.9 3.5 0.00 0.00 0.00 62 1020.2
20260831173827 91 276 0.0 3.5 0.00 0.00 0.00 63 1020.1
20260831173734 91 32 0.9 3.5 0.00 0.00 0.00 64 1020.1
20260831173621 90 32 1.7 3.5 0.00 0.00 0.00 60 1020.1
20260831173549 90 5 1.7 3.5 0.00 0.00 0.00 60 1020.1
20260831173436 90 355 0.9 5.2 0.00 0.00 0.00 61 1020.2
20260831173410 90 342 0.9 5.2 0.00 0.00 0.00 61 1020.2
20260831173125 90 245 1.7 5.2 0.00 0.00 0.00 59 1020.2
20260831173052 90 273 1.7 5.2 0.00 0.00 0.00 62 1020.1
20260831172938 90 290 1.7 5.2 0.00 0.00 0.00 61 1020.2
20260831172824 90 155 1.7 5.2 0.00 0.00 0.00 60 1020.3
20260831172736 90 199 1.7 5.2 0.00 0.00 0.00 61 1020.2
20260831172624 90 173 3.5 5.2 0.00 0.00 0.00 63 1020.2
20260831172531 90 202 2.6 7.0 0.00 0.00 0.00 63 1020.3
20260831172439 90 192 2.6 7.0 0.00 0.00 0.00 61 1020.3
20260831172346 90 232 1.7 7.0 0.00 0.00 0.00 63 1020.2
20260831172252 90 180 1.7 7.0 0.00 0.00 0.00 61 1020.2
20260831172123 90 76 2.6 7.0 0.00 0.00 0.00 61 1020.3
20260831172031 90 112 2.6 10.4 0.00 0.00 0.00 61 1020.3
20260831171959 90 113 3.5 10.4 0.00 0.00 0.00 60 1020.4
20260831171908 90 129 3.5 10.4 0.00 0.00 0.00 62 1020.4
20260831171622 90 162 3.5 10.4 0.00 0.00 0.00 61 1020.3
20260831171535 90 139 2.6 10.4 0.00 0.00 0.00 60 1020.3
20260831171442 90 173 1.7 10.4 0.00 0.00 0.00 60 1020.2
20260831171329 90 185 4.3 10.4 0.00 0.00 0.00 60 1020.2
20260831171236 90 141 5.2 10.4 0.00 0.00 0.00 61 1020.4
20260831171123 90 188 3.5 11.3 0.00 0.00 0.00 62 1020.3
20260831171031 90 188 2.6 6.1 0.00 0.00 0.00 63 1020.4
20260831170923 90 232 3.5 6.1 0.00 0.00 0.00 64 1020.4
20260831170831 90 194 3.5 6.1 0.00 0.00 0.00 64 1020.4
20260831170720 90 190 3.5 6.1 0.00 0.00 0.00 62 1020.4
20260831170628 90 217 3.5 6.1 0.00 0.00 0.00 61 1020.4
20260831170536 90 259 3.5 6.1 0.00 0.00 0.00 62 1020.4
20260831170447 90 219 1.7 8.7 0.00 0.00 0.00 62 1020.4
20260831170356 90 162 1.7 8.7 0.00 0.00 0.00 62 1020.4
20260831170128 90 311 1.7 8.7 0.00 0.00 0.00 62 1020.5
20260831170036 90 315 3.5 8.7 0.00 0.00 0.00 65 1020.4
20260831165923 90 213 4.3 8.7 0.00 0.00 0.00 63 1020.5
20260831165836 90 197 2.6 8.7 0.00 0.00 0.00 65 1020.6
20260831165723 89 168 2.6 8.7 0.00 0.00 0.00 64 1020.5
20260831165630 89 177 4.3 8.7 0.00 0.00 0.00 64 1020.6
20260831165536 89 186 6.1 8.7 0.00 0.00 0.00 65 1020.5
20260831165424 89 237 7.0 8.7 0.00 0.00 0.00 65 1020.5
20260831165331 89 171 7.0 8.7 0.00 0.00 0.00 65 1020.5
20260831165223 89 171 4.3 7.8 0.00 0.00 0.00 64 1020.5
20260831165130 89 171 3.5 7.8 0.00 0.00 0.00 68 1020.5
20260831165037 89 126 2.6 7.8 0.00 0.00 0.00 66 1020.5
20260831164925 89 118 3.5 7.8 0.00 0.00 0.00 65 1020.6
20260831164859 89 132 3.5 7.8 0.00 0.00 0.00 65 1020.6
20260831164632 89 137 3.5 7.8 0.00 0.00 0.00 68 1020.6
20260831164520 88 162 1.7 5.2 0.00 0.00 0.00 65 1020.6
20260831164447 88 225 0.0 5.2 0.00 0.00 0.00 65 1020.5
20260831164335 88 247 0.9 5.2 0.00 0.00 0.00 65 1020.6
20260831164221 88 247 0.9 6.1 0.00 0.00 0.00 65 1020.5
20260831164132 88 244 0.9 6.1 0.00 0.00 0.00 64 1020.5
20260831164020 88 208 0.9 6.1 0.00 0.00 0.00 64 1020.5
20260831163928 88 236 0.9 6.1 0.00 0.00 0.00 64 1020.5
20260831163835 88 236 1.7 6.1 0.00 0.00 0.00 65 1020.5
20260831163722 88 231 3.5 6.1 0.00 0.00 0.00 65 1020.6
20260831163634 88 207 3.5 6.1 0.00 0.00 0.00 67 1020.7
20260831163520 88 178 4.3 6.1 0.00 0.00 0.00 66 1020.6
20260831163428 88 193 4.3 6.1 0.00 0.00 0.00 66 1020.6
20260831163359 88 144 3.5 6.1 0.00 0.00 0.00 68 1020.6
20260831163133 88 192 2.6 6.1 0.00 0.00 0.00 67 1020.6
20260831163025 88 195 0.9 6.1 0.00 0.00 0.00 66 1020.7
20260831162933 88 245 0.9 7.0 0.00 0.00 0.00 66 1020.6
20260831162901 88 265 0.9 7.0 0.00 0.00 0.00 65 1020.7
20260831162726 88 290 2.6 7.0 0.00 0.00 0.00 66 1020.6
20260831162634 88 245 3.5 7.0 0.00 0.00 0.00 66 1020.7
20260831162526 88 257 2.6 7.0 0.00 0.00 0.00 66 1020.7
20260831162434 88 245 3.5 8.7 0.00 0.00 0.00 66 1020.6
20260831162321 88 221 4.3 8.7 0.00 0.00 0.00 65 1020.7
20260831162229 88 175 4.3 8.7 0.00 0.00 0.00 66 1020.7
20260831162136 88 186 4.3 8.7 0.00 0.00 0.00 66 1020.7
20260831162022 88 196 4.3 8.7 0.00 0.00 0.00 65 1020.6
20260831161933 89 216 3.5 8.7 0.00 0.00 0.00 65 1020.7
20260831161903 89 195 4.3 8.7 0.00 0.00 0.00 65 1020.7
20260831161637 89 204 5.2 8.7 0.00 0.00 0.00 65 1020.6
20260831161524 89 186 3.5 8.7 0.00 0.00 0.00 65 1020.5
20260831161436 89 162 1.7 7.0 0.00 0.00 0.00 65 1020.6
20260831161322 89 334 3.5 7.0 0.00 0.00 0.00 65 1020.6
20260831161230 89 268 4.3 7.0 0.00 0.00 0.00 67 1020.7
20260831161139 89 200 4.3 7.0 0.00 0.00 0.00 68 1020.6
20260831161026 89 219 3.5 7.0 0.00 0.00 0.00 67 1020.7
20260831160934 89 275 2.6 7.0 0.00 0.00 0.00 68 1020.7
20260831160827 89 175 1.7 7.0 0.00 0.00 0.00 67 1020.7
20260831160734 89 200 3.5 7.0 0.00 0.00 0.00 67 1020.8
20260831160701 89 171 4.3 7.0 0.00 0.00 0.00 66 1020.7
20260831160527 88 196 3.5 7.0 0.00 0.00 0.00 69 1020.7
20260831160434 88 199 3.5 5.2 0.00 0.00 0.00 69 1020.7
20260831160408 88 203 3.5 5.2 0.00 0.00 0.00 68 1020.7
20260831160121 88 272 2.6 6.1 0.00 0.00 0.00 69 1020.8
20260831160029 88 290 2.6 7.8 0.00 0.00 0.00 69 1020.7
20260831155936 88 344 2.6 7.8 0.00 0.00 0.00 68 1020.8
20260831155822 88 280 2.6 7.8 0.00 0.00 0.00 68 1020.8
20260831155734 88 220 3.5 7.8 0.00 0.00 0.00 68 1020.8
20260831155621 88 277 3.5 7.8 0.00 0.00 0.00 68 1020.8
20260831155528 88 213 2.6 7.8 0.00 0.00 0.00 69 1020.8
20260831155436 88 262 2.6 7.8 0.00 0.00 0.00 68 1020.7
20260831155322 88 268 3.5 7.8 0.00 0.00 0.00 69 1020.8
20260831155230 88 234 4.3 7.8 0.00 0.00 0.00 68 1020.7
20260831155121 88 229 4.3 8.7 0.00 0.00 0.00 69 1020.8
20260831155029 88 271 2.6 7.8 0.00 0.00 0.00 69 1020.8
20260831154936 88 243 1.7 7.8 0.00 0.00 0.00 70 1020.8
20260831154908 88 247 2.6 7.8 0.00 0.00 0.00 70 1020.8
20260831154625 88 174 4.3 7.8 0.00 0.00 0.00 70 1020.8
20260831154532 88 223 3.5 7.8 0.00 0.00 0.00 70 1020.8
20260831154420 88 232 3.5 7.8 0.00 0.00 0.00 69 1020.8
20260831154328 88 229 5.2 7.8 0.00 0.00 0.00 70 1020.8
20260831154236 88 234 4.3 7.8 0.00 0.00 0.00 70 1020.8
20260831154143 88 117 2.6 7.0 0.00 0.00 0.00 71 1020.9
20260831154033 88 165 2.6 7.0 0.00 0.00 0.00 71 1020.8
20260831153920 88 196 2.6 7.0 0.00 0.00 0.00 70 1020.8
20260831153828 88 167 2.6 7.0 0.00 0.00 0.00 70 1020.8
20260831153755 88 202 3.5 7.0 0.00 0.00 0.00 69 1020.8
20260831153622 88 249 4.3 7.0 0.00 0.00 0.00 70 1020.8
20260831153530 88 239 3.5 7.0 0.00 0.00 0.00 70 1020.8
20260831153440 88 180 3.5 7.0 0.00 0.00 0.00 69 1020.7
20260831153410 88 237 2.6 7.0 0.00 0.00 0.00 71 1020.7
20260831153122 87 275 1.7 7.0 0.00 0.00 0.00 70 1020.8
20260831153029 87 213 2.6 7.0 0.00 0.00 0.00 71 1020.7
20260831152920 87 331 3.5 7.0 0.00 0.00 0.00 71 1020.7
20260831152829 87 211 4.3 7.0 0.00 0.00 0.00 72 1020.7
20260831152737 87 173 5.2 7.0 0.00 0.00 0.00 71 1020.7
20260831152624 87 213 3.5 7.0 0.00 0.00 0.00 71 1020.7
20260831152531 87 212 3.5 7.0 0.00 0.00 0.00 71 1020.7
20260831152421 87 220 1.7 9.6 0.00 0.00 0.00 71 1020.7
20260831152327 87 323 1.7 9.6 0.00 0.00 0.00 70 1020.6
20260831152235 87 92 2.6 9.6 0.00 0.00 0.00 75 1020.7
20260831152142 87 181 2.6 9.6 0.00 0.00 0.00 74 1020.7
20260831152028 87 217 2.6 9.6 0.00 0.00 0.00 73 1020.7
20260831151936 87 133 3.5 9.6 0.00 0.00 0.00 72 1020.7
20260831151910 86 150 3.5 9.6 0.00 0.00 0.00 72 1020.7
20260831151623 86 223 6.1 9.6 0.00 0.00 0.00 72 1020.7
20260831151530 86 182 6.1 9.6 0.00 0.00 0.00 72 1020.8
20260831151458 86 164 5.2 7.8 0.00 0.00 0.00 72 1020.8
20260831151322 86 183 3.5 7.8 0.00 0.00 0.00 73 1020.7
20260831151231 86 227 3.5 7.8 0.00 0.00 0.00 72 1020.7
20260831151200 86 207 4.3 7.8 0.00 0.00 0.00 72 1020.7
20260831151025 86 140 2.6 7.8 0.00 0.00 0.00 73 1020.8
20260831150953 86 151 2.6 7.8 0.00 0.00 0.00 73 1020.8
20260831150859 86 165 4.3 7.8 0.00 0.00 0.00 72 1020.8
20260831150725 86 213 4.3 7.8 0.00 0.00 0.00 73 1020.7
20260831150634 86 190 4.3 7.8 0.00 0.00 0.00 73 1020.7
20260831150526 86 160 4.3 8.7 0.00 0.00 0.00 72 1020.8
20260831150432 86 168 4.3 8.7 0.00 0.00 0.00 74 1020.7
20260831150403 86 142 4.3 8.7 0.00 0.00 0.00 74 1020.7
20260831150137 86 144 3.5 8.7 0.00 0.00 0.00 74 1020.8
20260831150027 86 150 3.5 8.7 0.00 0.00 0.00 73 1020.7
20260831145935 85 196 4.3 8.7 0.00 0.00 0.00 74 1020.7
20260831145823 85 215 6.1 8.7 0.00 0.00 0.00 73 1020.7
20260831145750 85 205 5.2 8.7 0.00 0.00 0.00 73 1020.8
20260831145656 85 179 3.5 8.7 0.00 0.00 0.00 74 1020.7
20260831145522 85 186 0.9 8.7 0.00 0.00 0.00 74 1020.8
20260831145431 85 179 1.7 8.7 0.00 0.00 0.00 73 1020.8
20260831145342 85 169 3.5 8.7 0.00 0.00 0.00 73 1020.7
20260831145227 85 172 4.3 8.7 0.00 0.00 0.00 73 1020.8
20260831145135 85 198 5.2 9.6 0.00 0.00 0.00 74 1020.8
20260831145022 85 209 5.2 9.6 0.00 0.00 0.00 74 1020.8
20260831144950 85 203 6.1 9.6 0.00 0.00 0.00 73 1020.8
20260831144922 85 158 5.2 9.6 0.00 0.00 0.00 73 1020.8
20260831144636 85 173 3.5 9.6 0.00 0.00 0.00 75 1020.8
20260831144523 85 163 4.3 9.6 0.00 0.00 0.00 74 1020.8
20260831144431 85 252 6.1 9.6 0.00 0.00 0.00 73 1020.8
20260831144339 85 172 7.0 9.6 0.00 0.00 0.00 73 1020.7
20260831144231 85 215 6.1 8.7 0.00 0.00 0.00 73 1020.8
20260831144139 85 194 6.1 9.6 0.00 0.00 0.00 73 1020.7
20260831144046 85 188 6.1 9.6 0.00 0.00 0.00 73 1020.8
20260831143932 85 248 5.2 9.6 0.00 0.00 0.00 73 1020.7
20260831143820 85 223 4.3 9.6 0.00 0.00 0.00 73 1020.8
20260831143727 85 191 5.2 9.6 0.00 0.00 0.00 73 1020.8
20260831143634 85 176 5.2 9.6 0.00 0.00 0.00 73 1020.8
20260831143525 85 205 5.2 9.6 0.00 0.00 0.00 73 1020.8
20260831143453 85 251 6.1 9.6 0.00 0.00 0.00 73 1020.8
20260831143402 85 221 5.2 9.6 0.00 0.00 0.00 73 1020.8
20260831143155 85 197 4.3 9.6 0.00 0.00 0.00 73 1020.7
20260831143022 85 167 2.6 7.8 0.00 0.00 0.00 75 1020.7
20260831142933 85 188 1.7 7.8 0.00 0.00 0.00 74 1020.8
20260831142821 85 166 2.6 7.8 0.00 0.00 0.00 74 1020.8
20260831142727 85 190 4.3 7.8 0.00 0.00 0.00 73 1020.7
20260831142634 85 180 3.5 7.8 0.00 0.00 0.00 73 1020.7
20260831142520 85 190 2.6 7.8 0.00 0.00 0.00 73 1020.7
20260831142431 85 170 4.3 7.8 0.00 0.00 0.00 73 1020.7
20260831142339 85 146 4.3 7.8 0.00 0.00 0.00 73 1020.7
20260831142245 85 124 5.2 7.8 0.00 0.00 0.00 75 1020.7
20260831142151 85 144 5.2 7.8 0.00 0.00 0.00 74 1020.7
20260831142038 85 209 4.3 7.8 0.00 0.00 0.00 74 1020.8
20260831141925 85 205 4.3 7.8 0.00 0.00 0.00 74 1020.7
20260831141859 85 195 3.5 8.7 0.00 0.00 0.00 73 1020.7
20260831141633 85 223 4.3 8.7 0.00 0.00 0.00 74 1020.7
20260831141540 84 178 4.3 8.7 0.00 0.00 0.00 74 1020.7
20260831141427 84 205 3.5 8.7 0.00 0.00 0.00 74 1020.7
20260831141334 84 212 4.3 8.7 0.00 0.00 0.00 74 1020.6
20260831141226 84 178 4.3 8.7 0.00 0.00 0.00 75 1020.8
20260831141135 84 177 5.2 8.7 0.00 0.00 0.00 75 1020.7
20260831141021 84 157 6.1 8.7 0.00 0.00 0.00 75 1020.7
20260831140929 84 134 5.2 8.7 0.00 0.00 0.00 75 1020.7
20260831140837 84 165 6.1 8.7 0.00 0.00 0.00 75 1020.7
20260831140727 84 118 5.2 8.7 0.00 0.00 0.00 74 1020.7
20260831140635 84 87 5.2 8.7 0.00 0.00 0.00 76 1020.7
20260831140522 84 132 4.3 7.0 0.00 0.00 0.00 76 1020.6
20260831140428 84 155 2.6 7.0 0.00 0.00 0.00 77 1020.6
20260831140358 84 161 2.6 6.1 0.00 0.00 0.00 75 1020.6
20260831140137 84 179 2.6 5.2 0.00 0.00 0.00 76 1020.7
20260831140025 84 192 3.5 6.1 0.00 0.00 0.00 76 1020.7
20260831135953 84 194 3.5 8.7 0.00 0.00 0.00 76 1020.7
20260831135839 84 189 3.5 8.7 0.00 0.00 0.00 76 1020.7
20260831135747 84 178 3.5 8.7 0.00 0.00 0.00 77 1020.7
20260831135654 84 180 3.5 8.7 0.00 0.00 0.00 77 1020.8
20260831135539 84 196 2.6 8.7 0.00 0.00 0.00 78 1020.7
20260831135430 84 153 2.6 8.7 0.00 0.00 0.00 78 1020.7
20260831135336 84 160 3.5 8.7 0.00 0.00 0.00 77 1020.7
20260831135224 83 99 5.2 8.7 0.00 0.00 0.00 77 1020.8
20260831135131 83 211 4.3 8.7 0.00 0.00 0.00 77 1020.7
20260831135038 83 188 3.5 8.7 0.00 0.00 0.00 77 1020.7
20260831134927 83 140 2.6 7.8 0.00 0.00 0.00 78 1020.8
20260831134900 83 148 2.6 7.8 0.00 0.00 0.00 78 1020.8
20260831134634 83 180 4.3 7.8 0.00 0.00 0.00 78 1020.7
20260831134522 83 139 4.3 7.8 0.00 0.00 0.00 78 1020.7
20260831134429 83 137 3.5 6.1 0.00 0.00 0.00 78 1020.8
20260831134357 83 188 3.5 6.1 0.00 0.00 0.00 78 1020.7
20260831134226 83 126 3.5 6.1 0.00 0.00 0.00 78 1020.7
20260831134134 83 198 3.5 6.1 0.00 0.00 0.00 77 1020.8
20260831134021 83 191 4.3 6.1 0.00 0.00 0.00 78 1020.7
20260831133928 83 192 4.3 7.0 0.00 0.00 0.00 78 1020.7
20260831133836 83 163 4.3 6.1 0.00 0.00 0.00 78 1020.7
20260831133728 82 182 3.5 6.1 0.00 0.00 0.00 79 1020.7
20260831133636 82 166 2.6 5.2 0.00 0.00 0.00 80 1020.8
20260831133524 82 113 3.5 5.2 0.00 0.00 0.00 79 1020.7
20260831133453 82 194 3.5 5.2 0.00 0.00 0.00 79 1020.7
20260831133402 82 186 3.5 5.2 0.00 0.00 0.00 79 1020.7
20260831133119 82 209 2.6 6.1 0.00 0.00 0.00 80 1020.7
20260831133028 82 198 2.6 6.1 0.00 0.00 0.00 80 1020.6
20260831132935 82 144 2.6 6.1 0.00 0.00 0.00 81 1020.6
20260831132823 81 119 2.6 6.1 0.00 0.00 0.00 81 1020.6
20260831132729 81 57 2.6 6.1 0.00 0.00 0.00 80 1020.6
20260831132621 81 144 3.5 6.1 0.00 0.00 0.00 81 1020.7
20260831132528 81 134 3.5 6.1 0.00 0.00 0.00 81 1020.6
20260831132435 81 157 3.5 5.2 0.00 0.00 0.00 81 1020.6
20260831132343 81 186 3.5 5.2 0.00 0.00 0.00 81 1020.6
20260831132229 81 146 3.5 4.3 0.00 0.00 0.00 81 1020.7
20260831132157 81 123 2.6 5.2 0.00 0.00 0.00 83 1020.6
20260831132023 81 130 2.6 4.3 0.00 0.00 0.00 83 1020.6
20260831131935 80 137 3.5 4.3 0.00 0.00 0.00 83 1020.7
20260831131906 80 132 3.5 4.3 0.00 0.00 0.00 83 1020.7
20260831131620 80 123 2.6 4.3 0.00 0.00 0.00 84 1020.7
20260831131527 80 160 2.6 4.3 0.00 0.00 0.00 84 1020.7
20260831131439 80 146 2.6 4.3 0.00 0.00 0.00 84 1020.5
20260831131326 79 137 2.6 4.3 0.00 0.00 0.00 84 1020.6
20260831131234 79 126 3.5 4.3 0.00 0.00 0.00 84 1020.5
20260831131121 79 120 3.5 4.3 0.00 0.00 0.00 84 1020.5
20260831131028 79 124 2.6 5.2 0.00 0.00 0.00 86 1020.5
20260831130955 79 111 2.6 3.5 0.00 0.00 0.00 86 1020.5
20260831130825 78 148 0.9 2.6 0.00 0.00 0.00 87 1020.5
20260831130751 78 133 0.0 2.6 0.00 0.00 0.00 86 1020.5
20260831130639 78 116 0.0 0.0 0.00 0.00 0.00 86 1020.5
20260831130546 78 126 0.0 0.0 0.00 0.00 0.00 87 1020.5
20260831130453 77 116 0.0 0.0 0.00 0.00 0.00 87 1020.5
20260831130423 77 103 0.0 0.0 0.00 0.00 0.00 88 1020.4
20260831130120 77 140 0.0 0.0 0.00 0.00 0.00 89 1020.4
20260831130046 76 140 0.0 0.0 0.00 0.00 0.00 90 1020.4
20260831125953 76 121 0.0 0.0 0.00 0.00 0.00 90 1020.4
20260831125838 76 121 0.0 0.0 0.00 0.00 0.00 90 1020.3
20260831125745 76 121 0.0 0.0 0.00 0.00 0.00 90 1020.3
20260831125652 76 92 0.0 0.0 0.00 0.00 0.00 91 1020.4
20260831125539 75 88 0.0 0.0 0.00 0.00 0.00 91 1020.3
20260831125429 75 114 0.0 0.0 0.00 0.00 0.00 92 1020.3
20260831125336 75 123 0.0 0.0 0.00 0.00 0.00 92 1020.3
20260831125223 75 70 0.0 0.0 0.00 0.00 0.00 92 1020.3
20260831125130 75 86 0.0 0.0 0.00 0.00 0.00 93 1020.4
20260831125038 75 111 0.0 0.0 0.00 0.00 0.00 94 1020.3
20260831124930 74 99 0.0 0.0 0.00 0.00 0.00 94 1020.3
20260831124900 74 99 0.0 0.0 0.00 0.00 0.00 94 1020.3
20260831124634 74 350 0.0 0.0 0.00 0.00 0.00 94 1020.3
20260831124521 74 350 0.0 0.0 0.00 0.00 0.00 94 1020.3
20260831124429 74 350 0.0 0.0 0.00 0.00 0.00 94 1020.3
20260831124320 74 350 0.0 0.0 0.00 0.00 0.00 93 1020.2
20260831124228 74 350 0.0 0.0 0.00 0.00 0.00 93 1020.2
20260831124155 73 350 0.0 0.0 0.00 0.00 0.00 93 1020.2
20260831124022 73 350 0.0 0.0 0.00 0.00 0.00 93 1020.2
20260831123928 73 350 0.0 0.0 0.00 0.00 0.00 93 1020.2
20260831123820 73 350 0.0 0.0 0.00 0.00 0.00 93 1020.2
20260831123726 73 350 0.0 0.0 0.00 0.00 0.00 94 1020.2
20260831123634 73 350 0.0 0.0 0.00 0.00 0.00 94 1020.2
20260831123520 73 350 0.0 0.0 0.00 0.00 0.00 94 1020.2
20260831123428 73 350 0.0 0.0 0.00 0.00 0.00 94 1020.2
20260831123404 73 350 0.0 0.0 0.00 0.00 0.00 94 1020.2
20260831123138 73 350 0.0 0.0 0.00 0.00 0.00 94 1020.2
20260831123024 73 350 0.0 0.0 0.00 0.00 0.00 94 1020.1
20260831122933 73 350 0.0 0.0 0.00 0.00 0.00 94 1020.1
20260831122840 73 350 0.0 0.0 0.00 0.00 0.00 94 1020.1
20260831122731 73 350 0.0 0.0 0.00 0.00 0.00 94 1020.1
20260831122639 73 350 0.0 0.0 0.00 0.00 0.00 94 1020.1
20260831122526 73 350 0.0 0.0 0.00 0.00 0.00 94 1020.1
20260831122432 73 350 0.0 0.0 0.00 0.00 0.00 94 1020.1
20260831122320 73 350 0.0 0.0 0.00 0.00 0.00 94 1020.1
20260831122228 73 350 0.0 0.0 0.00 0.00 0.00 94 1020.0
20260831122139 72 350 0.0 0.0 0.00 0.00 0.00 94 1020.1
20260831122026 72 350 0.0 0.0 0.00 0.00 0.00 94 1020.1
20260831121933 72 350 0.0 0.0 0.00 0.00 0.00 94 1020.1
20260831121903 72 350 0.0 0.0 0.00 0.00 0.00 94 1020.1
20260831121621 72 350 0.0 0.0 0.00 0.00 0.00 94 1020.0
20260831121530 72 350 0.0 0.0 0.00 0.00 0.00 94 1019.9
20260831121437 72 350 0.0 0.0 0.00 0.00 0.00 94 1019.9
20260831121324 72 350 0.0 0.0 0.00 0.00 0.00 94 1019.9
20260831121231 72 350 0.0 0.0 0.00 0.00 0.00 94 1019.8
20260831121122 72 350 0.0 0.0 0.00 0.00 0.00 94 1019.9
20260831121029 72 350 0.0 0.0 0.00 0.00 0.00 94 1019.9
20260831120937 72 350 0.0 0.0 0.00 0.00 0.00 94 1019.9
20260831120844 72 350 0.0 0.0 0.00 0.00 0.00 94 1019.8
20260831120731 72 350 0.0 0.0 0.00 0.00 0.00 94 1019.8
20260831120638 72 350 0.0 0.0 0.00 0.00 0.00 94 1019.8
20260831120529 72 350 0.0 0.0 0.00 0.00 0.00 94 1019.8
20260831120456 72 350 0.0 0.0 0.00 0.00 0.00 94 1019.8
20260831120428 72 350 0.0 0.0 0.00 0.00 0.00 94 1019.9
20260831120121 72 350 0.0 0.0 0.00 0.00 0.00 94 1019.8
20260831120028 72 350 0.0 0.0 0.00 0.00 0.00 94 1019.8
20260831115920 72 350 0.0 0.0 0.00 0.00 0.00 94 1019.8
20260831115827 72 350 0.0 0.0 0.00 0.00 0.00 94 1019.7
20260831115735 72 350 0.0 0.0 0.00 0.00 0.00 94 1019.8
20260831115623 71 350 0.0 0.0 0.00 0.00 0.00 94 1019.7
20260831115530 71 350 0.0 0.0 0.00 0.00 0.00 93 1019.7
20260831115422 71 350 0.0 0.0 0.00 0.00 0.00 93 1019.6
20260831115329 71 350 0.0 0.0 0.00 0.00 0.00 93 1019.8
20260831115258 71 350 0.0 0.0 0.00 0.00 0.00 93 1019.8
20260831115125 71 350 0.0 0.0 0.00 0.00 0.00 93 1019.8
20260831115033 71 350 0.0 0.0 0.00 0.00 0.00 93 1019.8
20260831114920 71 350 0.0 0.0 0.00 0.00 0.00 93 1019.6
20260831114854 72 350 0.0 0.0 0.00 0.00 0.00 93 1019.6
20260831114627 72 350 0.0 0.0 0.00 0.00 0.00 93 1019.6
20260831114556 72 350 0.0 0.0 0.00 0.00 0.00 93 1019.7
20260831114442 72 350 0.0 0.0 0.00 0.00 0.00 93 1019.6
20260831114329 72 350 0.0 0.0 0.00 0.00 0.00 93 1019.6
20260831114221 72 350 0.0 0.0 0.00 0.00 0.00 94 1019.6
20260831114126 72 350 0.0 0.0 0.00 0.00 0.00 94 1019.6
20260831114034 72 350 0.0 0.0 0.00 0.00 0.00 94 1019.6
20260831113921 72 350 0.0 0.0 0.00 0.00 0.00 93 1019.7
20260831113828 72 350 0.0 0.0 0.00 0.00 0.00 93 1019.6
20260831113736 72 350 0.0 0.0 0.00 0.00 0.00 93 1019.6
20260831113647 72 350 0.0 0.0 0.00 0.00 0.00 93 1019.5
20260831113533 72 350 0.0 0.0 0.00 0.00 0.00 93 1019.5
20260831113500 72 350 0.0 0.0 0.00 0.00 0.00 93 1019.5
20260831113432 72 350 0.0 0.0 0.00 0.00 0.00 93 1019.6
20260831113124 72 350 0.0 0.0 0.00 0.00 0.00 93 1019.5
20260831113052 72 350 0.0 0.0 0.00 0.00 0.00 93 1019.4
20260831112921 72 350 0.0 0.0 0.00 0.00 0.00 93 1019.4
20260831112851 72 350 0.0 0.0 0.00 0.00 0.00 93 1019.4
20260831112736 72 350 0.0 0.0 0.00 0.00 0.00 93 1019.4
20260831112624 72 350 0.0 0.0 0.00 0.00 0.00 93 1019.4
20260831112532 72 350 0.0 0.0 0.00 0.00 0.00 93 1019.4
20260831112423 72 350 0.0 0.0 0.00 0.00 0.00 93 1019.4
20260831112332 72 350 0.0 0.0 0.00 0.00 0.00 93 1019.5
20260831112300 72 350 0.0 0.0 0.00 0.00 0.00 93 1019.4
20260831112146 72 350 0.0 0.0 0.00 0.00 0.00 93 1019.3
20260831112053 72 350 0.0 0.0 0.00 0.00 0.00 93 1019.4
20260831111939 72 350 0.0 0.0 0.00 0.00 0.00 93 1019.4
20260831111855 72 350 0.0 0.0 0.00 0.00 0.00 93 1019.4
20260831111630 72 350 0.0 0.0 0.00 0.00 0.00 93 1019.3
20260831111538 72 350 0.0 0.0 0.00 0.00 0.00 93 1019.4
20260831111424 72 350 0.0 0.0 0.00 0.00 0.00 93 1019.3
20260831111332 72 350 0.0 0.0 0.00 0.00 0.00 93 1019.4
20260831111224 72 350 0.0 0.0 0.00 0.00 0.00 93 1019.3
20260831111130 72 350 0.0 0.0 0.00 0.00 0.00 93 1019.3
20260831111037 72 350 0.0 0.0 0.00 0.00 0.00 93 1019.3
20260831110944 72 350 0.0 0.0 0.00 0.00 0.00 94 1019.3
20260831110831 72 350 0.0 0.0 0.00 0.00 0.00 94 1019.3
20260831110738 72 350 0.0 0.0 0.00 0.00 0.00 94 1019.3
20260831110629 72 350 0.0 0.0 0.00 0.00 0.00 94 1019.3
20260831110536 72 350 0.0 0.0 0.00 0.00 0.00 94 1019.4
20260831110423 72 350 0.0 0.0 0.00 0.00 0.00 94 1019.3
20260831110355 72 350 0.0 0.0 0.00 0.00 0.00 93 1019.3
20260831110128 72 350 0.0 0.0 0.00 0.00 0.00 93 1019.4
20260831110020 72 350 0.0 0.0 0.00 0.00 0.00 93 1019.4
20260831105947 72 350 0.0 0.0 0.00 0.00 0.00 93 1019.3
20260831105834 72 350 0.0 0.0 0.00 0.00 0.00 93 1019.3
20260831105721 72 350 0.0 0.0 0.00 0.00 0.00 93 1019.3
20260831105629 72 350 0.0 0.0 0.00 0.00 0.00 93 1019.3
20260831105534 72 350 0.0 0.0 0.00 0.00 0.00 93 1019.3
20260831105426 72 350 0.0 0.0 0.00 0.00 0.00 93 1019.3
20260831105332 72 350 0.0 0.0 0.00 0.00 0.00 93 1019.3
20260831105220 72 350 0.0 0.0 0.00 0.00 0.00 93 1019.3
20260831105128 72 350 0.0 0.0 0.00 0.00 0.00 93 1019.2
20260831105055 72 350 0.0 0.0 0.00 0.00 0.00 93 1019.2
20260831104923 72 350 0.0 0.0 0.00 0.00 0.00 93 1019.2
20260831104858 72 350 0.0 0.0 0.00 0.00 0.00 93 1019.2
20260831104631 72 350 0.0 0.0 0.00 0.00 0.00 93 1019.2
20260831104539 72 350 0.0 0.0 0.00 0.00 0.00 94 1019.1
20260831104427 72 350 0.0 0.0 0.00 0.00 0.00 94 1019.1
20260831104353 72 350 0.0 0.0 0.00 0.00 0.00 94 1019.2
20260831104222 72 350 0.0 0.0 0.00 0.00 0.00 94 1019.1
20260831104129 72 350 0.0 0.0 0.00 0.00 0.00 94 1019.1
20260831104057 72 350 0.0 0.0 0.00 0.00 0.00 94 1019.1
20260831103944 72 350 0.0 0.0 0.00 0.00 0.00 94 1019.0
20260831103831 72 350 0.0 0.0 0.00 0.00 0.00 94 1019.0
20260831103738 72 350 0.0 0.0 0.00 0.00 0.00 93 1018.9
20260831103630 72 350 0.0 0.0 0.00 0.00 0.00 93 1019.0
20260831103537 72 350 0.0 0.0 0.00 0.00 0.00 93 1018.9
20260831103503 72 350 0.0 0.0 0.00 0.00 0.00 94 1019.0
20260831103413 72 350 0.0 0.0 0.00 0.00 0.00 94 1019.0
20260831103125 72 350 0.0 0.0 0.00 0.00 0.00 94 1019.0
20260831103053 72 350 0.0 0.0 0.00 0.00 0.00 93 1019.0
20260831102922 72 350 0.0 0.0 0.00 0.00 0.00 94 1018.9
20260831102830 72 350 0.0 0.0 0.00 0.00 0.00 94 1019.0
20260831102737 72 350 0.0 0.0 0.00 0.00 0.00 94 1019.0
20260831102624 72 350 0.0 0.0 0.00 0.00 0.00 94 1018.9
20260831102532 72 350 0.0 0.0 0.00 0.00 0.00 94 1018.9
20260831102424 72 350 0.0 0.0 0.00 0.00 0.00 94 1018.8
20260831102332 72 350 0.0 0.0 0.00 0.00 0.00 94 1018.8
20260831102239 72 350 0.0 0.0 0.00 0.00 0.00 94 1018.9
20260831102126 72 350 0.0 0.0 0.00 0.00 0.00 94 1018.9
20260831102033 72 350 0.0 0.0 0.00 0.00 0.00 94 1018.9
20260831101941 72 350 0.0 0.0 0.00 0.00 0.00 94 1018.8
20260831101916 72 350 0.0 0.0 0.00 0.00 0.00 94 1018.8
20260831101629 72 350 0.0 0.0 0.00 0.00 0.00 94 1018.9
20260831101536 72 350 0.0 0.0 0.00 0.00 0.00 94 1018.8
20260831101422 72 350 0.0 0.0 0.00 0.00 0.00 94 1018.8
20260831101350 72 350 0.0 0.0 0.00 0.00 0.00 94 1018.7
20260831101256 72 350 0.0 0.0 0.00 0.00 0.00 94 1018.7
20260831101146 72 350 0.0 0.0 0.00 0.00 0.00 94 1018.7
20260831101032 72 350 0.0 0.0 0.00 0.00 0.00 94 1018.7
20260831100920 72 350 0.0 0.0 0.00 0.00 0.00 94 1018.7
20260831100827 72 350 0.0 0.0 0.00 0.00 0.00 94 1018.7
20260831100732 72 350 0.0 0.0 0.00 0.00 0.00 94 1018.7
20260831100623 72 350 0.0 0.0 0.00 0.00 0.00 94 1018.6
20260831100530 72 350 0.0 0.0 0.00 0.00 0.00 93 1018.6
20260831100409 72 350 0.0 0.0 0.00 0.00 0.00 93 1018.6
20260831100122 72 350 0.0 0.0 0.00 0.00 0.00 93 1018.5
20260831100053 72 350 0.0 0.0 0.00 0.00 0.00 93 1018.5
20260831095939 72 350 0.0 0.0 0.00 0.00 0.00 93 1018.5
20260831095826 72 350 0.0 0.0 0.00 0.00 0.00 93 1018.6
20260831095734 72 350 0.0 0.9 0.00 0.00 0.00 93 1018.6
20260831095621 72 350 0.0 0.9 0.00 0.00 0.00 93 1018.6
20260831095528 72 350 0.0 0.9 0.00 0.00 0.00 93 1018.6
20260831095420 72 350 0.0 1.7 0.00 0.00 0.00 93 1018.6
20260831095325 72 350 0.0 1.7 0.00 0.00 0.00 93 1018.5
20260831095233 72 350 0.0 1.7 0.00 0.00 0.00 93 1018.6
20260831095120 72 350 0.0 1.7 0.00 0.00 0.00 93 1018.5
20260831095027 72 350 0.0 1.7 0.00 0.00 0.00 92 1018.4
20260831094909 72 350 0.9 1.7 0.00 0.00 0.00 92 1018.5
20260831094623 72 350 0.0 1.7 0.00 0.00 0.00 92 1018.6
20260831094531 72 350 0.9 1.7 0.00 0.00 0.00 92 1018.6
20260831094423 72 350 0.9 1.7 0.00 0.00 0.00 92 1018.6
20260831094330 72 350 0.9 1.7 0.00 0.00 0.00 92 1018.5
20260831094257 72 350 0.9 1.7 0.00 0.00 0.00 92 1018.5
20260831094123 72 350 0.9 1.7 0.00 0.00 0.00 92 1018.5
20260831094051 72 350 0.9 1.7 0.00 0.00 0.00 92 1018.5
20260831093938 72 350 0.9 1.7 0.00 0.00 0.00 92 1018.5
20260831093825 72 350 0.9 1.7 0.00 0.00 0.00 92 1018.6
20260831093736 72 350 0.9 1.7 0.00 0.00 0.00 91 1018.6
20260831093623 72 350 0.0 1.7 0.00 0.00 0.00 91 1018.6
20260831093531 73 350 0.9 1.7 0.00 0.00 0.00 91 1018.6
20260831093412 73 350 0.9 1.7 0.00 0.00 0.00 91 1018.6
20260831093126 73 350 1.7 1.7 0.00 0.00 0.00 91 1018.5
20260831093035 73 350 1.7 1.7 0.00 0.00 0.00 91 1018.6
20260831092923 73 350 0.9 1.7 0.00 0.00 0.00 91 1018.6
20260831092831 73 350 1.7 1.7 0.00 0.00 0.00 91 1018.5
20260831092722 73 350 1.7 1.7 0.00 0.00 0.00 91 1018.5
20260831092630 73 350 0.9 1.7 0.00 0.00 0.00 91 1018.6
20260831092536 73 251 0.9 1.7 0.00 0.00 0.00 91 1018.5
20260831092443 73 251 0.9 1.7 0.00 0.00 0.00 90 1018.6
20260831092329 73 251 0.9 1.7 0.00 0.00 0.00 90 1018.6
20260831092237 73 251 0.9 0.9 0.00 0.00 0.00 90 1018.5
20260831092145 73 251 0.0 0.9 0.00 0.00 0.00 90 1018.6
20260831092034 73 251 0.0 0.9 0.00 0.00 0.00 90 1018.6
20260831091911 73 251 0.0 0.0 0.00 0.00 0.00 91 1018.6
20260831091622 74 251 0.0 0.0 0.00 0.00 0.00 91 1018.5
20260831091534 74 251 0.0 0.0 0.00 0.00 0.00 90 1018.6
20260831091420 74 251 0.0 0.0 0.00 0.00 0.00 90 1018.6
20260831091328 74 251 0.0 0.0 0.00 0.00 0.00 90 1018.5
20260831091256 74 251 0.0 0.0 0.00 0.00 0.00 90 1018.5
20260831091123 74 251 0.0 0.0 0.00 0.00 0.00 90 1018.6
20260831091049 74 251 0.0 0.0 0.00 0.00 0.00 90 1018.5
20260831090921 74 251 0.0 0.9 0.00 0.00 0.00 90 1018.6
20260831090828 74 251 0.0 0.9 0.00 0.00 0.00 90 1018.5
20260831090735 74 251 0.0 0.9 0.00 0.00 0.00 90 1018.5
20260831090623 74 251 0.0 1.7 0.00 0.00 0.00 90 1018.5
20260831090531 74 251 0.0 1.7 0.00 0.00 0.00 90 1018.4
20260831090414 74 251 0.0 1.7 0.00 0.00 0.00 90 1018.4
20260831090147 74 251 0.0 1.7 0.00 0.00 0.00 90 1018.5
20260831090034 74 251 0.9 1.7 0.00 0.00 0.00 90 1018.5
20260831085922 74 251 0.9 1.7 0.00 0.00 0.00 90 1018.5
20260831085829 74 251 0.9 1.7 0.00 0.00 0.00 90 1018.4
20260831085721 75 251 0.0 1.7 0.00 0.00 0.00 90 1018.5
20260831085629 75 144 0.0 1.7 0.00 0.00 0.00 90 1018.5
20260831085536 75 144 0.0 1.7 0.00 0.00 0.00 90 1018.4
20260831085424 75 144 0.0 1.7 0.00 0.00 0.00 90 1018.5
20260831085332 75 144 0.0 1.7 0.00 0.00 0.00 90 1018.4
20260831085220 75 144 0.0 1.7 0.00 0.00 0.00 90 1018.5
20260831085150 75 144 0.0 1.7 0.00 0.00 0.00 91 1018.4
20260831085056 75 144 0.9 1.7 0.00 0.00 0.00 91 1018.4
20260831084913 75 144 0.9 1.7 0.00 0.00 0.00 91 1018.4
20260831084646 75 144 0.0 1.7 0.00 0.00 0.00 91 1018.5
20260831084557 75 144 0.0 1.7 0.00 0.00 0.00 90 1018.4
20260831084423 75 144 0.0 1.7 0.00 0.00 0.00 90 1018.4
20260831084332 75 144 0.0 1.7 0.00 0.00 0.00 90 1018.4
20260831084219 75 144 0.0 1.7 0.00 0.00 0.00 90 1018.4
20260831084127 75 144 0.0 1.7 0.00 0.00 0.00 90 1018.4
20260831084034 75 144 0.9 1.7 0.00 0.00 0.00 90 1018.4
20260831083925 75 144 0.9 1.7 0.00 0.00 0.00 90 1018.3
20260831083834 75 144 0.9 1.7 0.00 0.00 0.00 90 1018.4
20260831083720 75 144 0.9 1.7 0.00 0.00 0.00 90 1018.3
20260831083648 75 144 0.9 1.7 0.00 0.00 0.00 90 1018.3
20260831083535 75 144 0.9 1.7 0.00 0.00 0.00 89 1018.3
20260831083427 75 144 0.9 1.7 0.00 0.00 0.00 89 1018.3
20260831083359 74 144 0.9 1.7 0.00 0.00 0.00 90 1018.3
20260831083133 74 144 0.0 1.7 0.00 0.00 0.00 90 1018.3
20260831083041 74 144 0.0 1.7 0.00 0.00 0.00 90 1018.2
20260831082927 74 144 0.0 1.7 0.00 0.00 0.00 90 1018.2
20260831082855 74 144 0.0 1.7 0.00 0.00 0.00 90 1018.1
20260831082726 74 144 0.9 1.7 0.00 0.00 0.00 90 1018.1
20260831082632 74 144 0.9 1.7 0.00 0.00 0.00 91 1018.2
20260831082519 74 144 0.9 1.7 0.00 0.00 0.00 91 1018.2
20260831082428 74 144 0.9 1.7 0.00 0.00 0.00 91 1018.1
20260831082336 74 144 0.9 1.7 0.00 0.00 0.00 91 1018.1
20260831082227 74 144 0.9 1.7 0.00 0.00 0.00 91 1018.2
20260831082153 74 144 0.9 1.7 0.00 0.00 0.00 91 1018.1
20260831082039 74 144 0.9 1.7 0.00 0.00 0.00 91 1018.1
20260831081946 74 144 0.9 1.7 0.00 0.00 0.00 91 1018.0
20260831081855 74 144 0.9 1.7 0.00 0.00 0.00 91 1018.0
20260831081632 74 342 0.9 1.7 0.00 0.00 0.00 91 1018.1
20260831081520 74 342 0.9 1.7 0.00 0.00 0.00 91 1018.1
20260831081427 74 342 0.9 1.7 0.00 0.00 0.00 91 1018.1
20260831081335 74 342 0.9 1.7 0.00 0.00 0.00 91 1018.1
20260831081224 74 342 0.0 1.7 0.00 0.00 0.00 91 1018.1
20260831081131 74 342 0.0 0.9 0.00 0.00 0.00 92 1018.1
20260831081024 74 342 0.0 0.9 0.00 0.00 0.00 92 1018.0
20260831080932 74 342 0.0 0.9 0.00 0.00 0.00 92 1018.0
20260831080838 74 342 0.0 0.9 0.00 0.00 0.00 91 1018.0
20260831080726 74 342 0.0 0.0 0.00 0.00 0.00 91 1018.0
20260831080632 74 342 0.0 0.0 0.00 0.00 0.00 91 1018.0
20260831080523 74 342 0.0 0.0 0.00 0.00 0.00 91 1018.0
20260831080431 74 342 0.0 0.0 0.00 0.00 0.00 91 1018.0
20260831080402 74 342 0.0 0.0 0.00 0.00 0.00 91 1018.0
20260831080135 74 342 0.0 0.0 0.00 0.00 0.00 91 1018.1
20260831080023 74 342 0.0 0.0 0.00 0.00 0.00 91 1018.1
20260831075955 74 342 0.0 0.0 0.00 0.00 0.00 91 1018.1
20260831075821 74 342 0.0 0.0 0.00 0.00 0.00 91 1018.1
20260831075727 74 342 0.0 0.0 0.00 0.00 0.00 91 1018.1
20260831075635 74 342 0.0 0.0 0.00 0.00 0.00 90 1018.0
20260831075523 74 342 0.0 0.0 0.00 0.00 0.00 90 1018.0
20260831075430 74 342 0.0 0.0 0.00 0.00 0.00 90 1018.1
20260831075342 74 342 0.0 0.0 0.00 0.00 0.00 90 1018.1
20260831075229 74 342 0.0 0.0 0.00 0.00 0.00 90 1018.1
20260831075136 74 342 0.0 0.0 0.00 0.00 0.00 90 1018.1
20260831075023 74 342 0.0 0.0 0.00 0.00 0.00 90 1018.1
20260831074925 74 342 0.0 0.0 0.00 0.00 0.00 90 1018.1
20260831074638 74 342 0.0 0.0 0.00 0.00 0.00 90 1018.1
20260831074525 74 342 0.0 0.0 0.00 0.00 0.00 90 1018.1
20260831074433 74 342 0.0 0.0 0.00 0.00 0.00 90 1018.0
20260831074321 74 342 0.0 0.9 0.00 0.00 0.00 90 1018.1
20260831074233 74 342 0.0 0.9 0.00 0.00 0.00 90 1018.1
20260831074120 74 342 0.0 0.9 0.00 0.00 0.00 90 1018.1
20260831074047 74 342 0.0 0.9 0.00 0.00 0.00 90 1018.1
20260831073954 74 342 0.0 0.9 0.00 0.00 0.00 90 1018.1
20260831073820 74 342 0.0 0.9 0.00 0.00 0.00 90 1018.1
20260831073728 74 342 0.0 0.9 0.00 0.00 0.00 90 1018.1
20260831073655 74 342 0.0 0.9 0.00 0.00 0.00 89 1018.1
20260831073546 74 342 0.0 0.9 0.00 0.00 0.00 89 1018.2
20260831073432 74 342 0.0 1.7 0.00 0.00 0.00 89 1018.1
20260831073404 74 342 0.9 1.7 0.00 0.00 0.00 89 1018.1
20260831073137 74 342 0.9 1.7 0.00 0.00 0.00 90 1018.2
20260831073043 74 342 0.9 1.7 0.00 0.00 0.00 90 1018.2
20260831072934 74 342 0.9 1.7 0.00 0.00 0.00 90 1018.3
20260831072821 74 342 0.9 1.7 0.00 0.00 0.00 90 1018.3
20260831072728 74 342 0.9 1.7 0.00 0.00 0.00 90 1018.2
20260831072635 74 342 0.9 2.6 0.00 0.00 0.00 89 1018.3
20260831072524 74 342 0.9 2.6 0.00 0.00 0.00 89 1018.2
20260831072431 74 342 1.7 2.6 0.00 0.00 0.00 89 1018.3
20260831072322 74 342 0.9 2.6 0.00 0.00 0.00 89 1018.2
20260831072229 74 342 0.9 2.6 0.00 0.00 0.00 90 1018.2
20260831072137 74 342 0.9 2.6 0.00 0.00 0.00 90 1018.3
20260831072024 74 342 1.7 2.6 0.00 0.00 0.00 90 1018.3
20260831071909 74 342 1.7 2.6 0.00 0.00 0.00 90 1018.3
20260831071622 74 342 1.7 2.6 0.00 0.00 0.00 89 1018.4
20260831071549 74 342 1.7 2.6 0.00 0.00 0.00 89 1018.2
20260831071435 74 342 1.7 1.7 0.00 0.00 0.00 89 1018.2
20260831071324 74 342 1.7 1.7 0.00 0.00 0.00 89 1018.3
20260831071236 74 342 1.7 1.7 0.00 0.00 0.00 89 1018.2
20260831071123 74 342 1.7 1.7 0.00 0.00 0.00 89 1018.3
20260831071051 74 342 1.7 1.7 0.00 0.00 0.00 89 1018.2
20260831070958 74 342 1.7 1.7 0.00 0.00 0.00 89 1018.3
20260831070824 74 342 0.9 1.7 0.00 0.00 0.00 89 1018.3
20260831070732 74 342 0.9 1.7 0.00 0.00 0.00 89 1018.3
20260831070623 74 342 0.9 1.7 0.00 0.00 0.00 89 1018.2
20260831070529 74 342 0.9 1.7 0.00 0.00 0.00 89 1018.2
20260831070437 74 342 0.9 1.7 0.00 0.00 0.00 89 1018.2
20260831070408 75 342 0.9 1.7 0.00 0.00 0.00 89 1018.2
20260831070125 75 342 0.9 2.6 0.00 0.00 0.00 90 1018.2
20260831070032 75 342 0.9 2.6 0.00 0.00 0.00 90 1018.2
20260831065920 75 342 0.9 2.6 0.00 0.00 0.00 90 1018.2
20260831065828 75 342 0.0 2.6 0.00 0.00 0.00 90 1018.3
20260831065756 75 342 0.0 2.6 0.00 0.00 0.00 90 1018.2
20260831065622 75 342 0.9 2.6 0.00 0.00 0.00 90 1018.1
20260831065534 75 342 0.9 2.6 0.00 0.00 0.00 90 1018.2
20260831065420 75 342 1.7 2.6 0.00 0.00 0.00 90 1018.2
20260831065329 75 342 1.7 2.6 0.00 0.00 0.00 90 1018.2
20260831065235 75 342 1.7 2.6 0.00 0.00 0.00 89 1018.2
20260831065142 75 342 1.7 2.6 0.00 0.00 0.00 89 1018.1
20260831065030 75 342 1.7 2.6 0.00 0.00 0.00 89 1018.1
20260831064920 75 342 1.7 2.6 0.00 0.00 0.00 89 1018.2
20260831064853 75 342 1.7 2.6 0.00 0.00 0.00 89 1018.2
20260831064626 75 342 1.7 1.7 0.00 0.00 0.00 89 1018.2
20260831064534 75 342 1.7 1.7 0.00 0.00 0.00 89 1018.2
20260831064425 75 5 0.9 1.7 0.00 0.00 0.00 89 1018.2
20260831064333 75 5 0.9 1.7 0.00 0.00 0.00 89 1018.2
20260831064220 75 5 1.7 1.7 0.00 0.00 0.00 89 1018.2
20260831064129 75 5 1.7 1.7 0.00 0.00 0.00 88 1018.3
20260831064037 75 5 0.9 1.7 0.00 0.00 0.00 89 1018.2
20260831063924 75 5 0.9 2.6 0.00 0.00 0.00 89 1018.2
20260831063856 75 5 0.9 2.6 0.00 0.00 0.00 89 1018.2
20260831063723 75 5 0.9 2.6 0.00 0.00 0.00 89 1018.2
20260831063630 75 5 1.7 2.6 0.00 0.00 0.00 89 1018.3
20260831063537 75 5 1.7 2.6 0.00 0.00 0.00 89 1018.2
20260831063423 75 5 1.7 2.6 0.00 0.00 0.00 89 1018.2
20260831063357 75 5 1.7 2.6 0.00 0.00 0.00 89 1018.2
20260831063152 75 5 1.7 2.6 0.00 0.00 0.00 89 1018.2
20260831063039 75 5 1.7 2.6 0.00 0.00 0.00 89 1018.3
20260831062947 75 355 1.7 2.6 0.00 0.00 0.00 88 1018.3
20260831062834 75 355 1.7 2.6 0.00 0.00 0.00 88 1018.3
20260831062722 75 342 0.9 1.7 0.00 0.00 0.00 88 1018.2
20260831062633 75 342 0.9 1.7 0.00 0.00 0.00 88 1018.3
20260831062521 75 342 0.9 1.7 0.00 0.00 0.00 89 1018.3
20260831062448 75 342 0.9 2.6 0.00 0.00 0.00 89 1018.3
20260831062336 75 342 0.9 2.6 0.00 0.00 0.00 89 1018.2
20260831062244 75 342 0.9 2.6 0.00 0.00 0.00 89 1018.3
20260831062131 75 342 0.9 2.6 0.00 0.00 0.00 89 1018.3
20260831062042 75 342 0.9 2.6 0.00 0.00 0.00 89 1018.3
20260831061929 75 342 0.9 2.6 0.00 0.00 0.00 89 1018.3
20260831061858 75 342 1.7 2.6 0.00 0.00 0.00 89 1018.3
20260831061651 75 319 1.7 2.6 0.00 0.00 0.00 89 1018.4
20260831061537 75 322 1.7 2.6 0.00 0.00 0.00 89 1018.5
20260831061427 75 322 1.7 2.6 0.00 0.00 0.00 89 1018.4
20260831061335 75 355 1.7 2.6 0.00 0.00 0.00 89 1018.5
20260831061223 75 355 1.7 2.6 0.00 0.00 0.00 89 1018.5
20260831061152 75 15 0.9 2.6 0.00 0.00 0.00 89 1018.5
20260831061039 75 15 0.9 2.6 0.00 0.00 0.00 89 1018.6
20260831060925 75 15 1.7 2.6 0.00 0.00 0.00 89 1018.6
20260831060837 75 15 1.7 2.6 0.00 0.00 0.00 88 1018.5
20260831060725 75 15 1.7 2.6 0.00 0.00 0.00 88 1018.5
20260831060633 75 15 1.7 2.6 0.00 0.00 0.00 88 1018.6
20260831060519 75 15 1.7 2.6 0.00 0.00 0.00 88 1018.5
20260831060427 75 21 1.7 2.6 0.00 0.00 0.00 88 1018.5
20260831060401 75 40 1.7 2.6 0.00 0.00 0.00 88 1018.5
20260831060135 75 5 1.7 2.6 0.00 0.00 0.00 88 1018.5
20260831060023 75 5 1.7 2.6 0.00 0.00 0.00 88 1018.5
20260831055931 75 5 1.7 2.6 0.00 0.00 0.00 88 1018.5
20260831055838 75 5 1.7 2.6 0.00 0.00 0.00 88 1018.6
20260831055730 75 5 1.7 2.6 0.00 0.00 0.00 88 1018.6
20260831055638 75 5 1.7 2.6 0.00 0.00 0.00 88 1018.6
20260831055525 75 5 1.7 2.6 0.00 0.00 0.00 87 1018.6
20260831055433 75 5 1.7 2.6 0.00 0.00 0.00 87 1018.6
20260831055320 75 5 1.7 2.6 0.00 0.00 0.00 87 1018.6
20260831055247 75 14 1.7 2.6 0.00 0.00 0.00 87 1018.6
20260831055139 75 14 1.7 2.6 0.00 0.00 0.00 87 1018.6
20260831055025 75 14 1.7 2.6 0.00 0.00 0.00 87 1018.4
20260831054953 75 32 0.9 2.6 0.00 0.00 0.00 87 1018.4
20260831054924 75 32 0.9 1.7 0.00 0.00 0.00 87 1018.5
20260831054621 76 32 0.9 1.7 0.00 0.00 0.00 87 1018.4
20260831054527 76 32 0.9 1.7 0.00 0.00 0.00 87 1018.5
20260831054435 76 32 0.9 1.7 0.00 0.00 0.00 87 1018.4
20260831054343 76 32 1.7 1.7 0.00 0.00 0.00 87 1018.4
20260831054230 76 32 1.7 1.7 0.00 0.00 0.00 88 1018.4
20260831054138 76 32 1.7 1.7 0.00 0.00 0.00 88 1018.4
20260831054029 76 32 0.9 1.7 0.00 0.00 0.00 88 1018.3
20260831053936 76 32 0.9 1.7 0.00 0.00 0.00 87 1018.4
20260831053825 76 32 0.9 1.7 0.00 0.00 0.00 87 1018.3
20260831053733 76 32 0.9 0.9 0.00 0.00 0.00 88 1018.3
20260831053620 76 32 0.9 0.9 0.00 0.00 0.00 88 1018.4
20260831053528 76 32 0.0 0.9 0.00 0.00 0.00 88 1018.3
20260831053409 76 32 0.0 0.9 0.00 0.00 0.00 88 1018.3
20260831053123 76 32 0.0 0.9 0.00 0.00 0.00 88 1018.3
20260831053030 76 32 0.0 0.9 0.00 0.00 0.00 88 1018.3
20260831052922 76 32 0.0 0.9 0.00 0.00 0.00 88 1018.3
20260831052829 76 32 0.0 0.9 0.00 0.00 0.00 88 1018.3
20260831052756 76 32 0.0 0.9 0.00 0.00 0.00 88 1018.2
20260831052622 76 32 0.0 0.9 0.00 0.00 0.00 88 1018.2
20260831052530 76 32 0.0 0.9 0.00 0.00 0.00 88 1018.3
20260831052437 76 32 0.0 0.0 0.00 0.00 0.00 87 1018.3
20260831052330 76 32 0.0 0.0 0.00 0.00 0.00 88 1018.2
20260831052237 76 32 0.0 0.0 0.00 0.00 0.00 88 1018.3
20260831052145 76 32 0.0 0.0 0.00 0.00 0.00 88 1018.3
20260831052032 76 32 0.0 0.0 0.00 0.00 0.00 88 1018.2
20260831052000 76 32 0.0 0.0 0.00 0.00 0.00 88 1018.3
20260831051854 76 32 0.0 0.9 0.00 0.00 0.00 88 1018.3
20260831051628 76 32 0.0 1.7 0.00 0.00 0.00 88 1018.2
20260831051556 76 32 0.0 1.7 0.00 0.00 0.00 88 1018.2
20260831051422 76 32 0.0 1.7 0.00 0.00 0.00 88 1018.2
20260831051330 76 32 0.0 1.7 0.00 0.00 0.00 88 1018.3
20260831051238 76 32 0.0 1.7 0.00 0.00 0.00 88 1018.3
20260831051130 76 32 0.0 1.7 0.00 0.00 0.00 88 1018.2
20260831051036 76 32 0.0 1.7 0.00 0.00 0.00 88 1018.2
20260831050923 76 32 0.9 1.7 0.00 0.00 0.00 88 1018.2
20260831050831 76 32 0.9 1.7 0.00 0.00 0.00 87 1018.3
20260831050738 76 32 0.9 1.7 0.00 0.00 0.00 87 1018.2
20260831050629 76 32 0.9 1.7 0.00 0.00 0.00 88 1018.2
20260831050537 76 32 0.9 1.7 0.00 0.00 0.00 88 1018.2
20260831050425 76 32 0.0 0.9 0.00 0.00 0.00 88 1018.2
20260831050355 76 32 0.0 0.0 0.00 0.00 0.00 88 1018.2
20260831050127 76 32 0.0 0.9 0.00 0.00 0.00 88 1018.3
20260831050039 76 32 0.0 0.9 0.00 0.00 0.00 88 1018.2
20260831045926 76 32 0.0 0.9 0.00 0.00 0.00 87 1018.3
20260831045833 76 32 0.0 0.9 0.00 0.00 0.00 87 1018.3
20260831045720 76 32 0.0 0.9 0.00 0.00 0.00 87 1018.3
20260831045627 76 32 0.0 1.7 0.00 0.00 0.00 87 1018.3
20260831045555 76 32 0.0 1.7 0.00 0.00 0.00 88 1018.3
20260831045445 76 32 0.0 1.7 0.00 0.00 0.00 88 1018.3
20260831045332 76 32 0.0 1.7 0.00 0.00 0.00 88 1018.3
20260831045239 76 32 0.0 1.7 0.00 0.00 0.00 88 1018.3
20260831045126 76 32 0.9 1.7 0.00 0.00 0.00 88 1018.3
20260831045034 76 32 0.9 1.7 0.00 0.00 0.00 88 1018.3
20260831045002 76 32 0.9 1.7 0.00 0.00 0.00 88 1018.3
20260831044934 76 32 0.9 2.6 0.00 0.00 0.00 87 1018.2
20260831044627 76 32 0.0 2.6 0.00 0.00 0.00 87 1018.2
20260831044533 76 32 0.0 2.6 0.00 0.00 0.00 87 1018.2
20260831044421 76 32 0.9 2.6 0.00 0.00 0.00 87 1018.2
20260831044334 76 32 1.7 2.6 0.00 0.00 0.00 87 1018.2
20260831044221 76 32 1.7 2.6 0.00 0.00 0.00 87 1018.2
20260831044130 76 32 1.7 2.6 0.00 0.00 0.00 87 1018.2
20260831044037 76 32 1.7 2.6 0.00 0.00 0.00 87 1018.2
20260831043925 76 32 1.7 2.6 0.00 0.00 0.00 86 1018.2
20260831043852 76 32 0.9 2.6 0.00 0.00 0.00 86 1018.2
20260831043741 76 11 0.9 2.6 0.00 0.00 0.00 85 1018.2
20260831043627 76 11 0.9 2.6 0.00 0.00 0.00 85 1018.1
20260831043535 76 11 1.7 2.6 0.00 0.00 0.00 85 1018.2
20260831043443 76 11 1.7 2.6 0.00 0.00 0.00 85 1018.1
20260831043412 77 11 1.7 1.7 0.00 0.00 0.00 86 1018.1
20260831043130 77 11 0.9 2.6 0.00 0.00 0.00 86 1018.1
20260831043036 77 11 0.9 2.6 0.00 0.00 0.00 86 1018.1
20260831042924 77 11 0.9 2.6 0.00 0.00 0.00 86 1018.2
20260831042831 77 11 0.9 2.6 0.00 0.00 0.00 86 1018.2
20260831042739 77 11 0.9 2.6 0.00 0.00 0.00 86 1018.2
20260831042626 77 11 0.9 2.6 0.00 0.00 0.00 86 1018.3
20260831042558 77 11 1.7 2.6 0.00 0.00 0.00 86 1018.2
20260831042424 77 11 1.7 2.6 0.00 0.00 0.00 86 1018.2
20260831042330 77 11 1.7 2.6 0.00 0.00 0.00 86 1018.2
20260831042237 77 11 1.7 2.6 0.00 0.00 0.00 86 1018.2
20260831042145 77 11 1.7 2.6 0.00 0.00 0.00 86 1018.3
20260831042032 77 11 1.7 2.6 0.00 0.00 0.00 85 1018.2
20260831041923 77 11 1.7 2.6 0.00 0.00 0.00 85 1018.3
20260831041854 77 11 1.7 2.6 0.00 0.00 0.00 85 1018.3
20260831041535 77 11 1.7 2.6 0.00 0.00 0.00 85 1018.4
20260831041444 77 11 1.7 2.6 0.00 0.00 0.00 85 1018.3
20260831041415 77 11 1.7 1.7 0.00 0.00 0.00 85 1018.3
20260831041321 77 11 0.9 1.7 0.00 0.00 0.00 86 1018.4
20260831041127 77 11 0.0 1.7 0.00 0.00 0.00 86 1018.4
20260831041035 77 11 0.0 1.7 0.00 0.00 0.00 86 1018.3
20260831040922 77 11 0.0 1.7 0.00 0.00 0.00 85 1018.4
20260831040831 77 11 0.0 1.7 0.00 0.00 0.00 85 1018.4
20260831040722 77 11 0.0 1.7 0.00 0.00 0.00 85 1018.4
20260831040628 77 11 0.9 1.7 0.00 0.00 0.00 85 1018.3
20260831040537 77 11 0.9 1.7 0.00 0.00 0.00 85 1018.3
20260831040445 77 11 0.9 1.7 0.00 0.00 0.00 84 1018.4
20260831040415 77 11 0.9 1.7 0.00 0.00 0.00 82 1018.4
20260831040130 77 11 0.9 1.7 0.00 0.00 0.00 83 1018.4
20260831040038 77 11 0.9 1.7 0.00 0.00 0.00 82 1018.3
20260831035925 77 11 0.9 1.7 0.00 0.00 0.00 82 1018.2
20260831035833 77 11 0.0 0.9 0.00 0.00 0.00 82 1018.4
20260831035720 78 11 0.0 0.0 0.00 0.00 0.00 83 1018.2
20260831035647 78 11 0.0 0.0 0.00 0.00 0.00 83 1018.2
20260831035538 78 11 0.0 0.0 0.00 0.00 0.00 83 1018.3
20260831035425 78 11 0.0 0.0 0.00 0.00 0.00 83 1018.3
20260831035333 78 11 0.0 0.0 0.00 0.00 0.00 84 1018.2
20260831035221 78 11 0.0 0.0 0.00 0.00 0.00 84 1018.2
20260831035129 78 11 0.0 0.0 0.00 0.00 0.00 84 1018.2
20260831035019 78 11 0.0 0.0 0.00 0.00 0.00 84 1018.2
20260831034927 78 11 0.0 0.0 0.00 0.00 0.00 84 1018.2
20260831034858 78 11 0.0 0.0 0.00 0.00 0.00 84 1018.2
20260831034632 78 11 0.0 0.0 0.00 0.00 0.00 84 1018.2
20260831034520 78 11 0.0 0.0 0.00 0.00 0.00 85 1018.3
20260831034452 78 11 0.0 0.0 0.00 0.00 0.00 85 1018.3
20260831034358 78 11 0.0 0.0 0.00 0.00 0.00 85 1018.3
20260831034224 78 11 0.0 0.0 0.00 0.00 0.00 85 1018.4
20260831034132 78 11 0.0 0.0 0.00 0.00 0.00 85 1018.3
20260831034019 78 11 0.0 0.0 0.00 0.00 0.00 85 1018.3
20260831033926 78 11 0.0 0.0 0.00 0.00 0.00 85 1018.3
20260831033838 78 11 0.0 0.0 0.00 0.00 0.00 84 1018.3
20260831033725 78 11 0.0 0.0 0.00 0.00 0.00 84 1018.3
20260831033631 78 11 0.0 0.0 0.00 0.00 0.00 84 1018.4
20260831033559 78 11 0.0 0.0 0.00 0.00 0.00 84 1018.3
20260831033425 78 11 0.0 0.0 0.00 0.00 0.00 84 1018.3
20260831033400 78 11 0.0 0.0 0.00 0.00 0.00 84 1018.3
20260831033153 78 11 0.0 0.0 0.00 0.00 0.00 84 1018.3
20260831033021 78 11 0.0 0.0 0.00 0.00 0.00 84 1018.3
20260831032929 78 11 0.0 0.0 0.00 0.00 0.00 84 1018.3
20260831032856 78 11 0.0 0.0 0.00 0.00 0.00 84 1018.4
20260831032743 78 11 0.0 0.0 0.00 0.00 0.00 84 1018.4
20260831032629 78 11 0.0 0.0 0.00 0.00 0.00 84 1018.4
20260831032521 78 11 0.0 0.0 0.00 0.00 0.00 84 1018.4
20260831032426 78 11 0.0 0.0 0.00 0.00 0.00 84 1018.4
20260831032335 78 11 0.0 0.0 0.00 0.00 0.00 84 1018.3
20260831032222 78 11 0.0 0.0 0.00 0.00 0.00 84 1018.3
20260831032130 78 11 0.0 0.0 0.00 0.00 0.00 84 1018.4
20260831032021 78 11 0.0 0.0 0.00 0.00 0.00 84 1018.4
20260831031929 78 11 0.0 0.0 0.00 0.00 0.00 85 1018.4
20260831031859 79 11 0.0 0.0 0.00 0.00 0.00 84 1018.4
20260831031632 79 11 0.0 0.0 0.00 0.00 0.00 84 1018.5
20260831031524 78 11 0.0 0.0 0.00 0.00 0.00 84 1018.5
20260831031431 79 11 0.0 0.0 0.00 0.00 0.00 84 1018.6
20260831031320 79 11 0.0 0.0 0.00 0.00 0.00 84 1018.6
20260831031227 79 11 0.0 0.0 0.00 0.00 0.00 84 1018.5
20260831031134 79 11 0.0 0.0 0.00 0.00 0.00 84 1018.6
20260831031021 79 11 0.0 0.0 0.00 0.00 0.00 83 1018.5
20260831030953 79 11 0.0 0.0 0.00 0.00 0.00 83 1018.5
20260831030839 79 11 0.0 0.0 0.00 0.00 0.00 83 1018.6
20260831030726 79 11 0.0 0.0 0.00 0.00 0.00 83 1018.6
20260831030631 79 11 0.0 0.0 0.00 0.00 0.00 83 1018.5
20260831030557 79 11 0.0 0.0 0.00 0.00 0.00 83 1018.5
20260831030424 79 11 0.0 0.0 0.00 0.00 0.00 83 1018.5
20260831030357 79 11 0.0 0.0 0.00 0.00 0.00 83 1018.5
20260831030131 79 11 0.0 0.0 0.00 0.00 0.00 83 1018.7
20260831030038 79 11 0.0 0.0 0.00 0.00 0.00 83 1018.6
20260831025926 79 11 0.0 0.9 0.00 0.00 0.00 82 1018.6
20260831025833 79 11 0.0 0.9 0.00 0.00 0.00 81 1018.8
20260831025723 79 11 0.0 0.9 0.00 0.00 0.00 80 1018.7
20260831025631 79 11 0.0 1.7 0.00 0.00 0.00 80 1018.6
20260831025539 79 11 0.0 1.7 0.00 0.00 0.00 80 1018.7
20260831025426 79 11 0.0 1.7 0.00 0.00 0.00 79 1018.7
20260831025354 79 11 0.0 1.7 0.00 0.00 0.00 80 1018.7
20260831025222 79 11 0.0 1.7 0.00 0.00 0.00 79 1018.7
20260831025133 79 11 0.9 1.7 0.00 0.00 0.00 79 1018.7
20260831025021 79 11 0.9 2.6 0.00 0.00 0.00 79 1018.7
20260831024927 79 11 0.9 2.6 0.00 0.00 0.00 79 1018.7
20260831024857 79 11 0.9 2.6 0.00 0.00 0.00 79 1018.7
20260831024651 79 11 0.9 2.6 0.00 0.00 0.00 79 1018.6
20260831024521 79 11 0.9 2.6 0.00 0.00 0.00 80 1018.8
20260831024429 79 11 1.7 2.6 0.00 0.00 0.00 80 1018.7
20260831024335 79 11 1.7 2.6 0.00 0.00 0.00 79 1018.7
20260831024223 79 11 1.7 2.6 0.00 0.00 0.00 79 1018.7
20260831024131 80 11 1.7 2.6 0.00 0.00 0.00 79 1018.7
20260831024021 80 11 1.7 2.6 0.00 0.00 0.00 79 1018.6
20260831023948 80 11 1.7 2.6 0.00 0.00 0.00 79 1018.7
20260831023855 80 11 1.7 2.6 0.00 0.00 0.00 79 1018.7
20260831023722 80 11 1.7 2.6 0.00 0.00 0.00 79 1018.7
20260831023629 80 11 1.7 2.6 0.00 0.00 0.00 78 1018.7
20260831023535 80 38 1.7 2.6 0.00 0.00 0.00 79 1018.7
20260831023428 80 38 0.9 2.6 0.00 0.00 0.00 80 1018.6
20260831023359 80 38 0.9 1.7 0.00 0.00 0.00 80 1018.6
20260831023132 80 38 0.0 0.9 0.00 0.00 0.00 80 1018.6
20260831023019 80 38 0.0 0.0 0.00 0.00 0.00 80 1018.6
20260831022926 80 38 0.0 0.0 0.00 0.00 0.00 79 1018.6
20260831022856 80 38 0.0 0.0 0.00 0.00 0.00 79 1018.5
20260831022722 80 38 0.0 0.0 0.00 0.00 0.00 80 1018.5
20260831022630 80 38 0.0 0.0 0.00 0.00 0.00 80 1018.5
20260831022537 80 38 0.0 0.0 0.00 0.00 0.00 80 1018.5
20260831022426 80 38 0.0 0.0 0.00 0.00 0.00 79 1018.6
20260831022333 80 38 0.0 0.0 0.00 0.00 0.00 79 1018.5
20260831022246 80 38 0.0 0.9 0.00 0.00 0.00 78 1018.4
20260831022132 80 38 0.0 0.9 0.00 0.00 0.00 79 1018.5
20260831022038 80 38 0.0 0.9 0.00 0.00 0.00 79 1018.5
20260831021926 80 38 0.0 0.9 0.00 0.00 0.00 78 1018.4
20260831021859 80 38 0.0 0.9 0.00 0.00 0.00 78 1018.4
20260831021632 80 38 0.0 1.7 0.00 0.00 0.00 78 1018.4
20260831021520 80 38 0.0 1.7 0.00 0.00 0.00 78 1018.4
20260831021427 80 38 0.0 1.7 0.00 0.00 0.00 78 1018.4
20260831021335 80 38 0.0 1.7 0.00 0.00 0.00 78 1018.3
20260831021221 81 38 0.0 1.7 0.00 0.00 0.00 78 1018.4
20260831021131 81 38 0.0 1.7 0.00 0.00 0.00 77 1018.4
20260831021059 81 38 0.9 1.7 0.00 0.00 0.00 77 1018.3
20260831020947 81 38 0.9 1.7 0.00 0.00 0.00 77 1018.3
20260831020833 81 38 0.9 1.7 0.00 0.00 0.00 77 1018.3
20260831020721 81 38 1.7 1.7 0.00 0.00 0.00 76 1018.3
20260831020628 81 38 1.7 1.7 0.00 0.00 0.00 75 1018.4
20260831020539 81 107 1.7 1.7 0.00 0.00 0.00 76 1018.3
20260831020427 81 107 0.9 1.7 0.00 0.00 0.00 75 1018.3
20260831020358 81 107 0.9 1.7 0.00 0.00 0.00 75 1018.3
20260831020132 81 107 0.0 0.9 0.00 0.00 0.00 75 1018.3
20260831020023 81 107 0.0 0.9 0.00 0.00 0.00 75 1018.3
20260831015930 81 107 0.0 0.9 0.00 0.00 0.00 75 1018.3
20260831015836 82 107 0.0 0.9 0.00 0.00 0.00 75 1018.2
20260831015744 82 107 0.0 0.9 0.00 0.00 0.00 74 1018.3
20260831015631 82 107 0.0 0.9 0.00 0.00 0.00 74 1018.3
20260831015538 82 107 0.0 0.9 0.00 0.00 0.00 75 1018.3
20260831015430 82 107 0.0 1.7 0.00 0.00 0.00 75 1018.3
20260831015339 82 107 0.0 1.7 0.00 0.00 0.00 75 1018.1
20260831015226 82 107 0.0 1.7 0.00 0.00 0.00 75 1018.2
20260831015132 82 107 0.9 1.7 0.00 0.00 0.00 75 1018.2
20260831015020 82 107 0.9 1.7 0.00 0.00 0.00 75 1018.1
20260831014946 82 107 0.9 1.7 0.00 0.00 0.00 75 1018.0
20260831014921 82 107 0.9 1.7 0.00 0.00 0.00 73 1018.0
20260831014633 83 107 0.9 1.7 0.00 0.00 0.00 74 1018.1
20260831014520 83 107 0.9 1.7 0.00 0.00 0.00 73 1018.1
20260831014428 83 107 0.9 1.7 0.00 0.00 0.00 73 1018.1
20260831014320 83 107 0.9 1.7 0.00 0.00 0.00 72 1018.1
20260831014228 83 107 0.9 1.7 0.00 0.00 0.00 73 1018.1
20260831014136 83 107 0.9 1.7 0.00 0.00 0.00 72 1018.1
20260831014043 83 107 0.9 1.7 0.00 0.00 0.00 71 1018.0
20260831013929 83 107 0.9 1.7 0.00 0.00 0.00 72 1018.0
20260831013837 83 107 0.9 1.7 0.00 0.00 0.00 72 1018.0
20260831013745 83 107 0.9 1.7 0.00 0.00 0.00 72 1018.1
20260831013656 84 107 0.9 1.7 0.00 0.00 0.00 71 1018.0
20260831013522 84 107 0.9 1.7 0.00 0.00 0.00 71 1018.1
20260831013449 84 107 0.9 1.7 0.00 0.00 0.00 71 1018.0
20260831013420 84 107 0.9 1.7 0.00 0.00 0.00 71 1018.0
20260831013132 84 107 0.9 1.7 0.00 0.00 0.00 71 1018.0
20260831013024 84 107 0.0 1.7 0.00 0.00 0.00 71 1018.1
20260831012952 84 107 0.0 1.7 0.00 0.00 0.00 71 1018.0
20260831012838 84 107 0.0 1.7 0.00 0.00 0.00 70 1018.1
20260831012725 84 107 0.0 1.7 0.00 0.00 0.00 70 1018.1
20260831012653 84 107 0.9 1.7 0.00 0.00 0.00 70 1018.0
20260831012520 84 107 0.9 1.7 0.00 0.00 0.00 69 1018.0
20260831012431 84 107 0.0 0.9 0.00 0.00 0.00 69 1018.0
20260831012338 84 107 0.0 0.9 0.00 0.00 0.00 70 1017.9
20260831012225 85 107 0.0 0.9 0.00 0.00 0.00 70 1018.0
20260831012134 85 107 0.0 1.7 0.00 0.00 0.00 70 1017.9
20260831012021 85 107 0.0 1.7 0.00 0.00 0.00 69 1018.0
20260831011929 85 107 0.0 1.7 0.00 0.00 0.00 68 1017.9
20260831011905 85 107 0.0 2.6 0.00 0.00 0.00 68 1017.9
20260831011659 85 107 0.0 2.6 0.00 0.00 0.00 68 1017.9
20260831011525 85 107 0.9 2.6 0.00 0.00 0.00 68 1017.9
20260831011432 85 107 0.9 2.6 0.00 0.00 0.00 68 1017.8
20260831011324 85 107 0.9 2.6 0.00 0.00 0.00 68 1017.8
20260831011230 85 107 1.7 3.5 0.00 0.00 0.00 68 1017.7
20260831011137 85 107 1.7 3.5 0.00 0.00 0.00 68 1017.7
20260831011025 85 107 1.7 3.5 0.00 0.00 0.00 67 1017.6
20260831010932 85 115 1.7 3.5 0.00 0.00 0.00 68 1017.6
20260831010838 85 120 1.7 3.5 0.00 0.00 0.00 68 1017.6
20260831010729 85 89 1.7 3.5 0.00 0.00 0.00 67 1017.6
20260831010636 85 119 1.7 3.5 0.00 0.00 0.00 67 1017.6
20260831010524 86 104 1.7 3.5 0.00 0.00 0.00 67 1017.6
20260831010432 86 124 1.7 4.3 0.00 0.00 0.00 67 1017.5
20260831010403 86 107 1.7 4.3 0.00 0.00 0.00 66 1017.5
20260831010121 86 117 1.7 4.3 0.00 0.00 0.00 66 1017.5
20260831010029 86 128 1.7 4.3 0.00 0.00 0.00 66 1017.5
20260831005956 86 136 1.7 4.3 0.00 0.00 0.00 66 1017.5
20260831005823 86 122 1.7 4.3 0.00 0.00 0.00 66 1017.4
20260831005731 86 128 1.7 4.3 0.00 0.00 0.00 66 1017.5
20260831005622 86 131 1.7 4.3 0.00 0.00 0.00 66 1017.4
20260831005529 86 128 2.6 4.3 0.00 0.00 0.00 66 1017.4
20260831005437 86 145 2.6 4.3 0.00 0.00 0.00 66 1017.4
20260831005325 86 142 1.7 4.3 0.00 0.00 0.00 66 1017.3
20260831005233 86 121 1.7 3.5 0.00 0.00 0.00 65 1017.4
20260831005139 86 105 1.7 3.5 0.00 0.00 0.00 65 1017.4
20260831005031 86 123 1.7 3.5 0.00 0.00 0.00 66 1017.4
20260831004959 86 120 1.7 3.5 0.00 0.00 0.00 66 1017.4
20260831004930 86 101 1.7 3.5 0.00 0.00 0.00 65 1017.4
20260831004643 86 131 1.7 3.5 0.00 0.00 0.00 65 1017.4
20260831004528 86 149 1.7 4.3 0.00 0.00 0.00 65 1017.4
20260831004455 86 161 0.9 6.1 0.00 0.00 0.00 65 1017.5
20260831004327 86 143 0.9 6.1 0.00 0.00 0.00 65 1017.4
20260831004253 86 143 0.9 6.1 0.00 0.00 0.00 65 1017.4
20260831004200 87 161 0.9 6.1 0.00 0.00 0.00 65 1017.4
20260831004046 87 146 1.7 6.1 0.00 0.00 0.00 65 1017.4
20260831003933 87 150 2.6 6.1 0.00 0.00 0.00 65 1017.4
20260831003822 87 174 2.6 6.1 0.00 0.00 0.00 65 1017.4
20260831003733 87 145 3.5 6.1 0.00 0.00 0.00 65 1017.5
20260831003620 87 138 2.6 6.1 0.00 0.00 0.00 64 1017.5
20260831003528 87 137 2.6 4.3 0.00 0.00 0.00 65 1017.4
20260831003435 87 190 2.6 4.3 0.00 0.00 0.00 64 1017.4
20260831003406 87 174 2.6 4.3 0.00 0.00 0.00 65 1017.4
20260831003124 87 139 2.6 4.3 0.00 0.00 0.00 64 1017.4
20260831003031 87 123 2.6 4.3 0.00 0.00 0.00 64 1017.3
20260831002938 87 159 1.7 4.3 0.00 0.00 0.00 64 1017.4
20260831002826 87 138 1.7 7.0 0.00 0.00 0.00 64 1017.3
20260831002733 87 176 1.7 7.0 0.00 0.00 0.00 64 1017.4
20260831002645 87 213 1.7 7.0 0.00 0.00 0.00 64 1017.4
20260831002530 87 121 1.7 7.0 0.00 0.00 0.00 64 1017.3
20260831002437 87 157 1.7 7.0 0.00 0.00 0.00 64 1017.3
20260831002323 87 153 2.6 7.0 0.00 0.00 0.00 64 1017.3
20260831002231 87 139 2.6 7.0 0.00 0.00 0.00 64 1017.4
20260831002138 87 165 3.5 7.0 0.00 0.00 0.00 64 1017.4
20260831002029 87 189 3.5 6.1 0.00 0.00 0.00 64 1017.4
20260831001937 87 208 2.6 7.0 0.00 0.00 0.00 64 1017.4
20260831001908 87 171 1.7 7.0 0.00 0.00 0.00 64 1017.4
20260831001620 87 171 2.6 7.0 0.00 0.00 0.00 63 1017.4
20260831001531 87 171 2.6 7.0 0.00 0.00 0.00 63 1017.4
20260831001458 87 165 2.6 7.0 0.00 0.00 0.00 63 1017.4
20260831001326 87 171 2.6 7.0 0.00 0.00 0.00 63 1017.5
20260831001232 87 171 4.3 7.0 0.00 0.00 0.00 63 1017.5
20260831001120 87 180 3.5 7.0 0.00 0.00 0.00 63 1017.5
20260831001028 88 200 2.6 7.0 0.00 0.00 0.00 63 1017.6
20260831000921 88 209 4.3 7.0 0.00 0.00 0.00 63 1017.5
20260831000829 88 149 4.3 7.0 0.00 0.00 0.00 63 1017.4
20260831000736 88 136 3.5 7.0 0.00 0.00 0.00 63 1017.5
20260831000624 88 140 2.6 6.1 0.00 0.00 0.00 63 1017.5
20260831000552 88 180 3.5 6.1 0.00 0.00 0.00 63 1017.5
20260831000439 88 153 3.5 6.1 0.00 0.00 0.00 63 1017.5
20260831000355 88 180 3.5 6.1 0.00 0.00 0.00 63 1017.5
20260831000127 88 196 3.5 6.1 0.00 0.00 0.00 63 1017.5
20260831000034 88 147 4.3 6.1 0.00 0.00 0.00 63 1017.6
20260830235922 88 161 3.5 6.1 0.00 0.00 0.00 63 1017.6
20260830235851 88 159 2.6 4.3 0.00 0.00 0.00 63 1017.5
20260830235721 88 191 2.6 4.3 0.00 0.00 0.00 63 1017.5
20260830235628 88 117 2.6 6.1 0.00 0.00 0.00 63 1017.5
20260830235535 88 142 3.5 6.1 0.00 0.00 0.00 62 1017.5
20260830235422 88 138 3.5 6.1 0.00 0.00 0.00 63 1017.6
20260830235329 88 115 2.6 6.1 0.00 0.00 0.00 62 1017.6
20260830235220 88 185 2.6 6.1 0.00 0.00 0.00 62 1017.5
20260830235127 88 178 1.7 6.1 0.00 0.00 0.00 62 1017.5
20260830235034 88 162 1.7 7.0 0.00 0.00 0.00 62 1017.5
20260830235002 88 205 2.6 7.0 0.00 0.00 0.00 62 1017.5
20260830234933 88 177 2.6 7.0 0.00 0.00 0.00 62 1017.4
20260830234628 89 186 1.7 7.0 0.00 0.00 0.00 62 1017.5
20260830234536 89 142 1.7 7.0 0.00 0.00 0.00 61 1017.5
20260830234423 89 221 3.5 7.0 0.00 0.00 0.00 61 1017.5
20260830234349 89 165 4.3 7.0 0.00 0.00 0.00 61 1017.4
20260830234236 89 164 4.3 7.0 0.00 0.00 0.00 61 1017.4
20260830234123 89 172 4.3 7.0 0.00 0.00 0.00 61 1017.4
20260830234029 89 181 5.2 7.0 0.00 0.00 0.00 61 1017.5
20260830233921 89 184 3.5 7.0 0.00 0.00 0.00 61 1017.4
20260830233829 89 202 2.6 7.0 0.00 0.00 0.00 61 1017.4
20260830233736 89 200 3.5 7.0 0.00 0.00 0.00 61 1017.5
20260830233643 89 187 3.5 7.0 0.00 0.00 0.00 60 1017.5
20260830233530 89 164 3.5 7.0 0.00 0.00 0.00 60 1017.5
20260830233437 89 197 3.5 7.0 0.00 0.00 0.00 61 1017.5
20260830233412 89 186 4.3 7.8 0.00 0.00 0.00 60 1017.5
20260830233125 90 159 5.2 7.8 0.00 0.00 0.00 60 1017.5
20260830233031 90 146 5.2 7.0 0.00 0.00 0.00 60 1017.5
20260830232959 90 161 4.3 7.0 0.00 0.00 0.00 60 1017.5
20260830232830 90 135 4.3 7.0 0.00 0.00 0.00 60 1017.5
20260830232738 90 142 3.5 6.1 0.00 0.00 0.00 60 1017.6
20260830232625 90 115 2.6 5.2 0.00 0.00 0.00 60 1017.6
20260830232531 90 179 3.5 5.2 0.00 0.00 0.00 60 1017.6
20260830232438 90 229 3.5 5.2 0.00 0.00 0.00 59 1017.6
20260830232325 90 217 3.5 5.2 0.00 0.00 0.00 59 1017.6
20260830232236 90 192 3.5 5.2 0.00 0.00 0.00 59 1017.6
20260830232143 90 185 3.5 5.2 0.00 0.00 0.00 59 1017.6
20260830232030 90 200 3.5 5.2 0.00 0.00 0.00 59 1017.6
20260830231959 90 204 2.6 5.2 0.00 0.00 0.00 59 1017.6
20260830231908 90 209 2.6 6.1 0.00 0.00 0.00 59 1017.6
20260830231625 90 176 2.6 5.2 0.00 0.00 0.00 60 1017.6
20260830231533 90 193 3.5 5.2 0.00 0.00 0.00 59 1017.5
20260830231420 90 200 2.6 5.2 0.00 0.00 0.00 60 1017.6
20260830231327 90 214 2.6 5.2 0.00 0.00 0.00 60 1017.6
20260830231255 90 180 2.6 6.1 0.00 0.00 0.00 60 1017.6
20260830231122 90 161 2.6 6.1 0.00 0.00 0.00 60 1017.6
20260830231034 90 212 3.5 6.1 0.00 0.00 0.00 60 1017.6
20260830230920 90 231 3.5 6.1 0.00 0.00 0.00 60 1017.6
20260830230829 90 225 3.5 7.0 0.00 0.00 0.00 60 1017.6
20260830230736 90 176 3.5 7.8 0.00 0.00 0.00 59 1017.6
20260830230624 90 213 3.5 7.8 0.00 0.00 0.00 60 1017.6
20260830230553 90 199 3.5 7.8 0.00 0.00 0.00 59 1017.6
20260830230443 90 180 3.5 7.8 0.00 0.00 0.00 59 1017.6
20260830230413 90 161 3.5 7.8 0.00 0.00 0.00 60 1017.6
20260830230127 90 182 5.2 7.8 0.00 0.00 0.00 60 1017.6
20260830230033 90 147 5.2 7.8 0.00 0.00 0.00 60 1017.6
20260830225925 90 178 5.2 8.7 0.00 0.00 0.00 59 1017.6
20260830225833 90 222 5.2 8.7 0.00 0.00 0.00 59 1017.5
20260830225800 90 177 4.3 8.7 0.00 0.00 0.00 59 1017.6
20260830225626 90 208 1.7 7.8 0.00 0.00 0.00 59 1017.6
20260830225534 90 162 1.7 7.8 0.00 0.00 0.00 59 1017.5
20260830225421 90 225 3.5 7.8 0.00 0.00 0.00 59 1017.6
20260830225353 90 179 3.5 7.8 0.00 0.00 0.00 59 1017.5
20260830225300 90 142 3.5 7.8 0.00 0.00 0.00 59 1017.6
20260830225126 90 169 3.5 7.8 0.00 0.00 0.00 59 1017.5
20260830225033 90 172 3.5 7.8 0.00 0.00 0.00 59 1017.5
20260830224941 90 150 3.5 8.7 0.00 0.00 0.00 58 1017.5
20260830224919 90 199 3.5 8.7 0.00 0.00 0.00 59 1017.5
20260830224651 91 178 3.5 8.7 0.00 0.00 0.00 59 1017.4
20260830224537 91 188 3.5 8.7 0.00 0.00 0.00 58 1017.5
20260830224424 91 217 5.2 8.7 0.00 0.00 0.00 58 1017.4
20260830224331 91 194 6.1 8.7 0.00 0.00 0.00 59 1017.5
20260830224239 91 151 6.1 8.7 0.00 0.00 0.00 59 1017.5
20260830224130 91 143 5.2 8.7 0.00 0.00 0.00 58 1017.4
20260830224057 91 163 5.2 8.7 0.00 0.00 0.00 58 1017.4
20260830223924 91 142 4.3 8.7 0.00 0.00 0.00 58 1017.4
20260830223831 91 134 4.3 8.7 0.00 0.00 0.00 57 1017.4
20260830223738 91 173 5.2 8.7 0.00 0.00 0.00 57 1017.4
20260830223625 91 193 5.2 8.7 0.00 0.00 0.00 58 1017.4
20260830223537 91 192 5.2 9.6 0.00 0.00 0.00 57 1017.4
20260830223424 91 123 5.2 9.6 0.00 0.00 0.00 58 1017.5
20260830223355 91 171 4.3 7.8 0.00 0.00 0.00 58 1017.5
20260830223148 91 142 4.3 7.8 0.00 0.00 0.00 57 1017.4
20260830223033 91 190 4.3 7.8 0.00 0.00 0.00 57 1017.5
20260830222924 91 168 5.2 7.8 0.00 0.00 0.00 58 1017.4
20260830222852 91 173 4.3 7.8 0.00 0.00 0.00 57 1017.5
20260830222759 91 223 2.6 7.8 0.00 0.00 0.00 58 1017.4
20260830222625 91 130 2.6 9.6 0.00 0.00 0.00 58 1017.4
20260830222532 91 169 4.3 9.6 0.00 0.00 0.00 58 1017.4
20260830222420 91 148 5.2 9.6 0.00 0.00 0.00 58 1017.4
20260830222347 92 159 5.2 9.6 0.00 0.00 0.00 58 1017.4
20260830222236 92 144 5.2 9.6 0.00 0.00 0.00 57 1017.4
20260830222125 92 180 4.3 9.6 0.00 0.00 0.00 57 1017.4
20260830222032 92 200 4.3 9.6 0.00 0.00 0.00 58 1017.4
20260830221939 92 182 4.3 9.6 0.00 0.00 0.00 57 1017.5
20260830221854 92 181 4.3 7.8 0.00 0.00 0.00 57 1017.5
20260830221627 92 191 4.3 7.8 0.00 0.00 0.00 58 1017.6
20260830221555 92 175 4.3 7.8 0.00 0.00 0.00 57 1017.5
20260830221420 92 148 5.2 7.8 0.00 0.00 0.00 57 1017.5
20260830221327 92 140 5.2 7.8 0.00 0.00 0.00 58 1017.5
20260830221236 92 140 5.2 9.6 0.00 0.00 0.00 57 1017.5
20260830221127 92 160 4.3 7.0 0.00 0.00 0.00 57 1017.6
20260830221034 92 191 2.6 7.0 0.00 0.00 0.00 58 1017.5
20260830220923 92 159 1.7 7.8 0.00 0.00 0.00 58 1017.5
20260830220830 92 139 1.7 7.8 0.00 0.00 0.00 57 1017.5
20260830220758 92 132 2.6 7.8 0.00 0.00 0.00 57 1017.6
20260830220644 92 47 4.3 7.8 0.00 0.00 0.00 57 1017.5
20260830220551 92 100 4.3 7.8 0.00 0.00 0.00 58 1017.5
20260830220441 92 118 3.5 7.8 0.00 0.00 0.00 58 1017.4
20260830220412 92 125 3.5 7.8 0.00 0.00 0.00 58 1017.4
20260830220146 92 215 4.3 7.8 0.00 0.00 0.00 57 1017.4
20260830220031 92 190 4.3 10.4 0.00 0.00 0.00 56 1017.5
20260830215921 92 176 2.6 10.4 0.00 0.00 0.00 58 1017.4
20260830215828 92 190 3.5 10.4 0.00 0.00 0.00 57 1017.5
20260830215737 92 209 3.5 10.4 0.00 0.00 0.00 57 1017.4
20260830215623 92 154 3.5 10.4 0.00 0.00 0.00 57 1017.5
20260830215531 92 208 4.3 10.4 0.00 0.00 0.00 58 1017.5
20260830215420 92 158 5.2 10.4 0.00 0.00 0.00 59 1017.6
20260830215330 92 171 5.2 10.4 0.00 0.00 0.00 57 1017.5
20260830215237 92 213 6.1 10.4 0.00 0.00 0.00 57 1017.5
20260830215124 92 190 5.2 10.4 0.00 0.00 0.00 58 1017.6
20260830215033 92 136 5.2 8.7 0.00 0.00 0.00 58 1017.6
20260830214939 92 142 6.1 8.7 0.00 0.00 0.00 58 1017.6
20260830214854 92 123 5.2 9.6 0.00 0.00 0.00 58 1017.6
20260830214627 92 164 4.3 8.7 0.00 0.00 0.00 57 1017.7
20260830214535 92 139 4.3 8.7 0.00 0.00 0.00 58 1017.6
20260830214422 92 128 4.3 9.6 0.00 0.00 0.00 57 1017.6
20260830214330 92 182 3.5 9.6 0.00 0.00 0.00 57 1017.6
20260830214221 92 180 3.5 9.6 0.00 0.00 0.00 57 1017.6
20260830214129 92 187 3.5 9.6 0.00 0.00 0.00 57 1017.6
20260830214035 92 144 5.2 9.6 0.00 0.00 0.00 56 1017.6
20260830213922 92 163 7.0 9.6 0.00 0.00 0.00 56 1017.6
20260830213850 92 117 7.0 9.6 0.00 0.00 0.00 56 1017.6
20260830213721 92 156 7.0 9.6 0.00 0.00 0.00 56 1017.6
20260830213628 92 135 6.1 9.6 0.00 0.00 0.00 57 1017.7
20260830213535 92 162 6.1 9.6 0.00 0.00 0.00 56 1017.6
20260830213442 92 176 6.1 9.6 0.00 0.00 0.00 57 1017.6
20260830213413 92 157 6.1 9.6 0.00 0.00 0.00 57 1017.6
20260830213130 92 217 6.1 9.6 0.00 0.00 0.00 57 1017.5
20260830213036 92 212 5.2 8.7 0.00 0.00 0.00 57 1017.6
20260830212925 92 173 3.5 7.0 0.00 0.00 0.00 57 1017.6
20260830212832 92 207 1.7 7.0 0.00 0.00 0.00 56 1017.6
20260830212720 92 173 1.7 7.0 0.00 0.00 0.00 56 1017.6
20260830212627 92 123 1.7 7.0 0.00 0.00 0.00 56 1017.5
20260830212539 92 101 2.6 7.8 0.00 0.00 0.00 58 1017.6
20260830212446 92 125 5.2 7.8 0.00 0.00 0.00 56 1017.6
20260830212354 92 112 5.2 7.8 0.00 0.00 0.00 56 1017.5
20260830212220 92 189 3.5 8.7 0.00 0.00 0.00 56 1017.6
20260830212128 92 200 2.6 8.7 0.00 0.00 0.00 58 1017.6
20260830212034 92 173 2.6 8.7 0.00 0.00 0.00 58 1017.6
20260830211926 92 83 4.3 8.7 0.00 0.00 0.00 56 1017.5
20260830211857 92 215 5.2 8.7 0.00 0.00 0.00 56 1017.5
20260830211631 92 227 5.2 8.7 0.00 0.00 0.00 57 1017.7
20260830211539 92 200 5.2 8.7 0.00 0.00 0.00 56 1017.6
20260830211431 92 209 6.1 8.7 0.00 0.00 0.00 56 1017.6
20260830211338 92 160 5.2 8.7 0.00 0.00 0.00 56 1017.6
20260830211225 92 196 3.5 9.6 0.00 0.00 0.00 57 1017.6
20260830211132 92 184 2.6 9.6 0.00 0.00 0.00 57 1017.5
20260830211019 92 217 3.5 9.6 0.00 0.00 0.00 57 1017.6
20260830210927 92 221 4.3 9.6 0.00 0.00 0.00 57 1017.7
20260830210820 92 186 5.2 12.2 0.00 0.00 0.00 58 1017.7
20260830210727 92 196 6.1 12.2 0.00 0.00 0.00 57 1017.7
20260830210634 92 192 7.0 12.2 0.00 0.00 0.00 57 1017.7
20260830210520 92 186 6.1 12.2 0.00 0.00 0.00 56 1017.7
20260830210448 92 167 5.2 12.2 0.00 0.00 0.00 56 1017.6
20260830210422 92 205 6.1 12.2 0.00 0.00 0.00 57 1017.6
20260830210134 92 182 7.0 12.2 0.00 0.00 0.00 57 1017.7
20260830210021 92 212 7.0 11.3 0.00 0.00 0.00 56 1017.7
20260830205927 92 215 6.1 9.6 0.00 0.00 0.00 57 1017.8
20260830205834 92 219 5.2 9.6 0.00 0.00 0.00 58 1017.7
20260830205744 92 242 4.3 8.7 0.00 0.00 0.00 57 1017.7
20260830205631 92 138 5.2 8.7 0.00 0.00 0.00 56 1017.8
20260830205538 92 173 4.3 11.3 0.00 0.00 0.00 56 1017.7
20260830205425 92 150 3.5 11.3 0.00 0.00 0.00 57 1017.8
20260830205333 92 122 3.5 11.3 0.00 0.00 0.00 57 1017.8
20260830205240 92 124 4.3 11.3 0.00 0.00 0.00 58 1017.9
20260830205132 92 158 3.5 11.3 0.00 0.00 0.00 56 1017.9
20260830205038 92 133 3.5 11.3 0.00 0.00 0.00 57 1017.9
20260830204927 92 169 7.0 11.3 0.00 0.00 0.00 58 1018.0
20260830204857 92 152 7.8 11.3 0.00 0.00 0.00 58 1018.0
20260830204631 92 165 6.1 10.4 0.00 0.00 0.00 57 1017.9
20260830204522 92 175 4.3 8.7 0.00 0.00 0.00 57 1018.0
20260830204429 92 177 6.1 8.7 0.00 0.00 0.00 56 1018.0
20260830204337 92 165 6.1 8.7 0.00 0.00 0.00 57 1018.0
20260830204225 92 219 4.3 7.8 0.00 0.00 0.00 57 1018.0
20260830204132 92 190 5.2 9.6 0.00 0.00 0.00 58 1018.1
20260830204044 92 186 4.3 10.4 0.00 0.00 0.00 56 1018.0
20260830203950 92 167 2.6 10.4 0.00 0.00 0.00 57 1018.1
20260830203837 92 202 1.7 10.4 0.00 0.00 0.00 57 1018.0
20260830203745 92 113 1.7 10.4 0.00 0.00 0.00 58 1018.1
20260830203631 92 49 2.6 10.4 0.00 0.00 0.00 58 1018.0
20260830203520 92 51 4.3 10.4 0.00 0.00 0.00 57 1018.1
20260830203428 92 68 4.3 10.4 0.00 0.00 0.00 59 1018.1
20260830203402 92 17 5.2 10.4 0.00 0.00 0.00 59 1018.1
20260830203156 91 110 4.3 7.0 0.00 0.00 0.00 57 1018.2
20260830203022 91 107 4.3 8.7 0.00 0.00 0.00 58 1018.2
20260830202929 91 132 3.5 8.7 0.00 0.00 0.00 60 1018.2
20260830202856 91 128 4.3 8.7 0.00 0.00 0.00 59 1018.3
20260830202727 91 142 3.5 8.7 0.00 0.00 0.00 57 1018.2
20260830202634 91 129 3.5 8.7 0.00 0.00 0.00 59 1018.2
20260830202522 91 204 2.6 8.7 0.00 0.00 0.00 58 1018.3
20260830202429 91 181 4.3 8.7 0.00 0.00 0.00 56 1018.2
20260830202337 91 155 5.2 8.7 0.00 0.00 0.00 57 1018.2
20260830202229 91 198 4.3 9.6 0.00 0.00 0.00 58 1018.3
20260830202136 91 223 4.3 9.6 0.00 0.00 0.00 57 1018.2
20260830202022 91 96 5.2 9.6 0.00 0.00 0.00 57 1018.2
20260830201950 92 131 4.3 9.6 0.00 0.00 0.00 57 1018.2
20260830201859 92 115 5.2 9.6 0.00 0.00 0.00 60 1018.2
20260830201653 92 122 4.3 8.7 0.00 0.00 0.00 59 1018.3
20260830201523 92 140 5.2 8.7 0.00 0.00 0.00 58 1018.2
20260830201429 92 85 4.3 8.7 0.00 0.00 0.00 59 1018.3
20260830201337 92 139 3.5 8.7 0.00 0.00 0.00 57 1018.3
20260830201224 92 132 2.6 8.7 0.00 0.00 0.00 57 1018.3
20260830201132 92 236 2.6 8.7 0.00 0.00 0.00 57 1018.2
20260830201023 92 198 4.3 8.7 0.00 0.00 0.00 57 1018.3
20260830200951 92 138 5.2 8.7 0.00 0.00 0.00 58 1018.3
20260830200837 92 156 5.2 9.6 0.00 0.00 0.00 57 1018.3
20260830200746 92 186 4.3 8.7 0.00 0.00 0.00 59 1018.3
20260830200634 92 190 4.3 8.7 0.00 0.00 0.00 59 1018.3
20260830200540 92 184 5.2 9.6 0.00 0.00 0.00 58 1018.3
20260830200447 92 256 4.3 9.6 0.00 0.00 0.00 59 1018.3
20260830200421 91 129 3.5 11.3 0.00 0.00 0.00 59 1018.3
20260830200133 91 136 4.3 11.3 0.00 0.00 0.00 59 1018.4
20260830200021 91 121 5.2 11.3 0.00 0.00 0.00 59 1018.4
20260830195927 91 145 5.2 11.3 0.00 0.00 0.00 59 1018.4
20260830195856 91 163 7.0 11.3 0.00 0.00 0.00 59 1018.6
20260830195725 91 143 7.8 11.3 0.00 0.00 0.00 59 1018.5
20260830195653 91 202 7.8 11.3 0.00 0.00 0.00 58 1018.6
20260830195519 91 242 7.0 10.4 0.00 0.00 0.00 59 1018.6
20260830195426 91 163 6.1 13.0 0.00 0.00 0.00 59 1018.6
20260830195335 91 241 4.3 13.0 0.00 0.00 0.00 58 1018.5
20260830195223 91 175 3.5 13.0 0.00 0.00 0.00 58 1018.6
20260830195134 91 195 5.2 13.0 0.00 0.00 0.00 58 1018.7
20260830195020 91 187 5.2 13.0 0.00 0.00 0.00 59 1018.7
20260830194948 91 155 4.3 13.0 0.00 0.00 0.00 58 1018.7
20260830194857 91 139 5.2 13.0 0.00 0.00 0.00 61 1018.7
20260830194651 91 136 7.8 12.2 0.00 0.00 0.00 59 1018.7
20260830194521 91 147 7.0 10.4 0.00 0.00 0.00 60 1018.7
20260830194429 91 127 6.1 9.6 0.00 0.00 0.00 60 1018.6
20260830194336 91 300 5.2 8.7 0.00 0.00 0.00 61 1018.7
20260830194223 91 173 4.3 8.7 0.00 0.00 0.00 60 1018.6
20260830194131 91 122 4.3 8.7 0.00 0.00 0.00 59 1018.8
20260830194058 91 232 4.3 8.7 0.00 0.00 0.00 61 1018.8
20260830193928 91 186 4.3 8.7 0.00 0.00 0.00 60 1018.8
20260830193857 91 213 4.3 8.7 0.00 0.00 0.00 63 1018.8
20260830193723 90 115 2.6 8.7 0.00 0.00 0.00 61 1018.8
20260830193630 90 205 4.3 8.7 0.00 0.00 0.00 61 1018.8
20260830193537 90 173 7.0 8.7 0.00 0.00 0.00 60 1018.9
20260830193423 90 184 7.0 8.7 0.00 0.00 0.00 61 1018.8
20260830193357 90 168 6.1 8.7 0.00 0.00 0.00 61 1018.8
20260830193131 90 147 4.3 8.7 0.00 0.00 0.00 61 1018.8
20260830193020 90 147 4.3 8.7 0.00 0.00 0.00 63 1018.8
20260830192927 90 60 4.3 8.7 0.00 0.00 0.00 64 1018.8
20260830192839 90 117 4.3 8.7 0.00 0.00 0.00 64 1018.9
20260830192726 90 98 3.5 8.7 0.00 0.00 0.00 61 1018.8
20260830192633 90 207 3.5 8.7 0.00 0.00 0.00 62 1018.9
20260830192520 90 171 4.3 8.7 0.00 0.00 0.00 62 1018.9
20260830192428 90 198 5.2 8.7 0.00 0.00 0.00 60 1018.9
20260830192335 90 193 5.2 8.7 0.00 0.00 0.00 61 1018.9
20260830192226 90 180 5.2 9.6 0.00 0.00 0.00 62 1018.9
20260830192133 90 168 5.2 9.6 0.00 0.00 0.00 62 1018.9
20260830192021 90 188 4.3 8.7 0.00 0.00 0.00 62 1018.9
20260830191949 90 210 4.3 8.7 0.00 0.00 0.00 62 1019.0
20260830191923 90 190 3.5 5.2 0.00 0.00 0.00 62 1019.0
20260830191637 90 223 3.5 6.1 0.00 0.00 0.00 61 1019.0
20260830191524 90 130 3.5 7.0 0.00 0.00 0.00 62 1019.0
20260830191432 90 126 3.5 7.0 0.00 0.00 0.00 61 1019.0
20260830191338 90 69 3.5 7.8 0.00 0.00 0.00 61 1019.0
20260830191225 90 104 3.5 7.8 0.00 0.00 0.00 62 1019.0
20260830191136 90 128 2.6 15.6 0.00 0.00 0.00 61 1019.0
20260830191023 90 176 3.5 15.6 0.00 0.00 0.00 61 1019.1
20260830190932 90 188 3.5 15.6 0.00 0.00 0.00 60 1018.9
20260830190820 90 174 3.5 15.6 0.00 0.00 0.00 62 1019.0
20260830190726 90 139 4.3 15.6 0.00 0.00 0.00 61 1019.0
20260830190636 90 211 5.2 15.6 0.00 0.00 0.00 60 1019.1
20260830190544 90 227 6.1 15.6 0.00 0.00 0.00 61 1019.1
20260830190451 90 211 7.0 15.6 0.00 0.00 0.00 62 1019.1
20260830190359 90 206 7.0 14.8 0.00 0.00 0.00 62 1019.1
20260830190133 90 157 8.7 11.3 0.00 0.00 0.00 61 1019.1
20260830190024 90 188 8.7 11.3 0.00 0.00 0.00 62 1019.2
20260830185932 90 136 7.0 11.3 0.00 0.00 0.00 63 1019.2
20260830185840 90 184 5.2 10.4 0.00 0.00 0.00 61 1019.1
20260830185726 90 173 3.5 9.6 0.00 0.00 0.00 63 1019.3
20260830185632 90 51 5.2 9.6 0.00 0.00 0.00 64 1019.2
20260830185520 90 164 5.2 9.6 0.00 0.00 0.00 65 1019.3
20260830185431 90 85 4.3 11.3 0.00 0.00 0.00 64 1019.2
20260830185320 90 167 6.1 11.3 0.00 0.00 0.00 63 1019.3
20260830185247 90 167 6.1 11.3 0.00 0.00 0.00 61 1019.2
20260830185134 90 162 5.2 11.3 0.00 0.00 0.00 61 1019.3
20260830185041 90 236 5.2 11.3 0.00 0.00 0.00 62 1019.2
20260830184927 90 184 6.1 11.3 0.00 0.00 0.00 61 1019.3
20260830184902 90 233 7.0 11.3 0.00 0.00 0.00 62 1019.3
20260830184635 90 193 8.7 11.3 0.00 0.00 0.00 62 1019.3
20260830184523 90 202 8.7 11.3 0.00 0.00 0.00 61 1019.3
20260830184430 90 172 7.0 13.0 0.00 0.00 0.00 62 1019.3
20260830184321 90 169 5.2 10.4 0.00 0.00 0.00 64 1019.3
20260830184230 90 208 4.3 10.4 0.00 0.00 0.00 63 1019.3
20260830184138 90 198 4.3 10.4 0.00 0.00 0.00 64 1019.3
20260830184046 90 195 4.3 10.4 0.00 0.00 0.00 63 1019.4
20260830183933 90 225 4.3 10.4 0.00 0.00 0.00 63 1019.4
20260830183900 90 165 4.3 13.0 0.00 0.00 0.00 63 1019.3
20260830183727 90 126 4.3 13.0 0.00 0.00 0.00 64 1019.4
20260830183638 90 133 5.2 13.0 0.00 0.00 0.00 65 1019.4
20260830183526 89 209 5.2 13.0 0.00 0.00 0.00 65 1019.4
20260830183433 89 171 4.3 13.0 0.00 0.00 0.00 66 1019.4
20260830183403 89 173 5.2 13.0 0.00 0.00 0.00 66 1019.4
20260830183141 89 181 7.0 13.0 0.00 0.00 0.00 65 1019.4
20260830183049 89 126 7.0 13.0 0.00 0.00 0.00 66 1019.5
20260830182934 89 135 6.1 13.0 0.00 0.00 0.00 65 1019.4
20260830182842 89 165 5.2 10.4 0.00 0.00 0.00 66 1019.4
20260830182729 89 111 4.3 10.4 0.00 0.00 0.00 65 1019.5
20260830182637 89 107 3.5 10.4 0.00 0.00 0.00 64 1019.4
20260830182523 89 136 5.2 12.2 0.00 0.00 0.00 63 1019.5
20260830182455 89 145 6.1 17.4 0.00 0.00 0.00 62 1019.4
20260830182321 89 128 7.0 17.4 0.00 0.00 0.00 62 1019.5
20260830182229 89 117 7.0 17.4 0.00 0.00 0.00 64 1019.5
20260830182136 90 120 6.1 17.4 0.00 0.00 0.00 63 1019.5